<?xml version="1.0" encoding="UTF-8" standalone="yes"?>
<gpx
 xmlns="http://www.topografix.com/GPX/1/1"
 creator="OziExplorer Version 3956f - http://www.oziexplorer.com"
 version="1.1"
 xmlns:xsi="http://www.w3.org/2001/XMLSchema-instance"
 xsi:schemaLocation="http://www.topografix.com/GPX/1/1 http://www.topografix.com/GPX/1/1/gpx.xsd">
<metadata>
 <time>2021-05-26T09:51:13Z</time>
 <bounds minlat="31.774460" minlon="34.989200" maxlat="31.825100" maxlon="35.088290"/>
</metadata>
<trk>
 <name>EshtaolKusalomBurma_24km.650m</name>
 <desc>EshtaolKusalomBurma_24km.650m</desc>
<trkseg>
<trkpt lat="31.8112900" lon="35.0135900">
<ele>275.919983</ele>
<time>2021-05-26T12:51:13.029Z</time>
</trkpt>
<trkpt lat="31.8111500" lon="35.0138400">
<ele>276.299988</ele>
<time>2021-05-26T12:51:13.031Z</time>
</trkpt>
<trkpt lat="31.8109800" lon="35.0141200">
<ele>276.490021</ele>
<time>2021-05-26T12:51:13.032Z</time>
</trkpt>
<trkpt lat="31.8107200" lon="35.0145700">
<ele>278.119995</ele>
<time>2021-05-26T12:51:13.032Z</time>
</trkpt>
<trkpt lat="31.8105100" lon="35.0149600">
<ele>283.739990</ele>
<time>2021-05-26T12:51:13.032Z</time>
</trkpt>
<trkpt lat="31.8104600" lon="35.0152000">
<ele>285.289978</ele>
<time>2021-05-26T12:51:13.032Z</time>
</trkpt>
<trkpt lat="31.8103500" lon="35.0154900">
<ele>284.700012</ele>
<time>2021-05-26T12:51:13.032Z</time>
</trkpt>
<trkpt lat="31.8102800" lon="35.0157700">
<ele>283.239990</ele>
<time>2021-05-26T12:51:13.032Z</time>
</trkpt>
<trkpt lat="31.8101600" lon="35.0161100">
<ele>284.570007</ele>
<time>2021-05-26T12:51:13.032Z</time>
</trkpt>
<trkpt lat="31.8100100" lon="35.0165600">
<ele>284.130005</ele>
<time>2021-05-26T12:51:13.032Z</time>
</trkpt>
<trkpt lat="31.8098100" lon="35.0170700">
<ele>286.109985</ele>
<time>2021-05-26T12:51:13.032Z</time>
</trkpt>
<trkpt lat="31.8096700" lon="35.0175500">
<ele>287.559998</ele>
<time>2021-05-26T12:51:13.032Z</time>
</trkpt>
<trkpt lat="31.8096500" lon="35.0177100">
<ele>288.279999</ele>
<time>2021-05-26T12:51:13.032Z</time>
</trkpt>
<trkpt lat="31.8096000" lon="35.0181100">
<ele>290.480011</ele>
<time>2021-05-26T12:51:13.032Z</time>
</trkpt>
<trkpt lat="31.8095500" lon="35.0182600">
<ele>291.929993</ele>
<time>2021-05-26T12:51:13.032Z</time>
</trkpt>
<trkpt lat="31.8099600" lon="35.0183800">
<ele>291.459991</ele>
<time>2021-05-26T12:51:13.032Z</time>
</trkpt>
<trkpt lat="31.8100100" lon="35.0184000">
<ele>291.479980</ele>
<time>2021-05-26T12:51:13.032Z</time>
</trkpt>
<trkpt lat="31.8100400" lon="35.0184200">
<ele>291.619995</ele>
<time>2021-05-26T12:51:13.032Z</time>
</trkpt>
<trkpt lat="31.8100800" lon="35.0184500">
<ele>291.839996</ele>
<time>2021-05-26T12:51:13.032Z</time>
</trkpt>
<trkpt lat="31.8101200" lon="35.0184900">
<ele>292.130005</ele>
<time>2021-05-26T12:51:13.032Z</time>
</trkpt>
<trkpt lat="31.8101500" lon="35.0185200">
<ele>292.339996</ele>
<time>2021-05-26T12:51:13.032Z</time>
</trkpt>
<trkpt lat="31.8101900" lon="35.0185700">
<ele>292.699982</ele>
<time>2021-05-26T12:51:13.032Z</time>
</trkpt>
<trkpt lat="31.8102200" lon="35.0186100">
<ele>292.989990</ele>
<time>2021-05-26T12:51:13.032Z</time>
</trkpt>
<trkpt lat="31.8102400" lon="35.0186700">
<ele>293.369995</ele>
<time>2021-05-26T12:51:13.032Z</time>
</trkpt>
<trkpt lat="31.8102700" lon="35.0187000">
<ele>293.619995</ele>
<time>2021-05-26T12:51:13.032Z</time>
</trkpt>
<trkpt lat="31.8102900" lon="35.0187600">
<ele>294.089996</ele>
<time>2021-05-26T12:51:13.032Z</time>
</trkpt>
<trkpt lat="31.8104100" lon="35.0191100">
<ele>297.429993</ele>
<time>2021-05-26T12:51:13.033Z</time>
</trkpt>
<trkpt lat="31.8104300" lon="35.0191600">
<ele>297.830017</ele>
<time>2021-05-26T12:51:13.033Z</time>
</trkpt>
<trkpt lat="31.8104500" lon="35.0191900">
<ele>298.329987</ele>
<time>2021-05-26T12:51:13.033Z</time>
</trkpt>
<trkpt lat="31.8104700" lon="35.0192300">
<ele>299.119995</ele>
<time>2021-05-26T12:51:13.033Z</time>
</trkpt>
<trkpt lat="31.8104800" lon="35.0192600">
<ele>299.739990</ele>
<time>2021-05-26T12:51:13.033Z</time>
</trkpt>
<trkpt lat="31.8105000" lon="35.0193100">
<ele>300.700012</ele>
<time>2021-05-26T12:51:13.033Z</time>
</trkpt>
<trkpt lat="31.8105300" lon="35.0193400">
<ele>301.040009</ele>
<time>2021-05-26T12:51:13.033Z</time>
</trkpt>
<trkpt lat="31.8105500" lon="35.0193700">
<ele>301.459991</ele>
<time>2021-05-26T12:51:13.033Z</time>
</trkpt>
<trkpt lat="31.8105800" lon="35.0194000">
<ele>301.890015</ele>
<time>2021-05-26T12:51:13.033Z</time>
</trkpt>
<trkpt lat="31.8106100" lon="35.0194300">
<ele>302.320007</ele>
<time>2021-05-26T12:51:13.033Z</time>
</trkpt>
<trkpt lat="31.8106400" lon="35.0194500">
<ele>302.500000</ele>
<time>2021-05-26T12:51:13.033Z</time>
</trkpt>
<trkpt lat="31.8118200" lon="35.0201100">
<ele>314.470001</ele>
<time>2021-05-26T12:51:13.034Z</time>
</trkpt>
<trkpt lat="31.8118500" lon="35.0198900">
<ele>317.589996</ele>
<time>2021-05-26T12:51:13.034Z</time>
</trkpt>
<trkpt lat="31.8119100" lon="35.0196000">
<ele>319.959991</ele>
<time>2021-05-26T12:51:13.034Z</time>
</trkpt>
<trkpt lat="31.8121300" lon="35.0187800">
<ele>320.879974</ele>
<time>2021-05-26T12:51:13.034Z</time>
</trkpt>
<trkpt lat="31.8121800" lon="35.0187200">
<ele>322.000000</ele>
<time>2021-05-26T12:51:13.034Z</time>
</trkpt>
<trkpt lat="31.8122400" lon="35.0187200">
<ele>323.109985</ele>
<time>2021-05-26T12:51:13.034Z</time>
</trkpt>
<trkpt lat="31.8123200" lon="35.0186700">
<ele>323.500000</ele>
<time>2021-05-26T12:51:13.034Z</time>
</trkpt>
<trkpt lat="31.8126000" lon="35.0190300">
<ele>328.589996</ele>
<time>2021-05-26T12:51:13.034Z</time>
</trkpt>
<trkpt lat="31.8128600" lon="35.0191600">
<ele>329.750000</ele>
<time>2021-05-26T12:51:13.034Z</time>
</trkpt>
<trkpt lat="31.8133600" lon="35.0194600">
<ele>327.230011</ele>
<time>2021-05-26T12:51:13.034Z</time>
</trkpt>
<trkpt lat="31.8136700" lon="35.0195300">
<ele>328.289978</ele>
<time>2021-05-26T12:51:13.034Z</time>
</trkpt>
<trkpt lat="31.8139800" lon="35.0196600">
<ele>320.069977</ele>
<time>2021-05-26T12:51:13.034Z</time>
</trkpt>
<trkpt lat="31.8146200" lon="35.0195700">
<ele>316.639984</ele>
<time>2021-05-26T12:51:13.034Z</time>
</trkpt>
<trkpt lat="31.8148200" lon="35.0194200">
<ele>319.200012</ele>
<time>2021-05-26T12:51:13.034Z</time>
</trkpt>
<trkpt lat="31.8149800" lon="35.0193900">
<ele>318.439972</ele>
<time>2021-05-26T12:51:13.034Z</time>
</trkpt>
<trkpt lat="31.8155800" lon="35.0192900">
<ele>303.720001</ele>
<time>2021-05-26T12:51:13.034Z</time>
</trkpt>
<trkpt lat="31.8158200" lon="35.0191700">
<ele>302.290009</ele>
<time>2021-05-26T12:51:13.034Z</time>
</trkpt>
<trkpt lat="31.8160500" lon="35.0191100">
<ele>297.420013</ele>
<time>2021-05-26T12:51:13.034Z</time>
</trkpt>
<trkpt lat="31.8164900" lon="35.0191000">
<ele>294.890015</ele>
<time>2021-05-26T12:51:13.034Z</time>
</trkpt>
<trkpt lat="31.8167400" lon="35.0190700">
<ele>291.290009</ele>
<time>2021-05-26T12:51:13.034Z</time>
</trkpt>
<trkpt lat="31.8168800" lon="35.0189600">
<ele>289.670013</ele>
<time>2021-05-26T12:51:13.034Z</time>
</trkpt>
<trkpt lat="31.8173600" lon="35.0186200">
<ele>291.860016</ele>
<time>2021-05-26T12:51:13.034Z</time>
</trkpt>
<trkpt lat="31.8175200" lon="35.0185600">
<ele>291.949982</ele>
<time>2021-05-26T12:51:13.034Z</time>
</trkpt>
<trkpt lat="31.8178700" lon="35.0183100">
<ele>287.570007</ele>
<time>2021-05-26T12:51:13.034Z</time>
</trkpt>
<trkpt lat="31.8181800" lon="35.0182300">
<ele>285.570007</ele>
<time>2021-05-26T12:51:13.035Z</time>
</trkpt>
<trkpt lat="31.8189500" lon="35.0181700">
<ele>276.170013</ele>
<time>2021-05-26T12:51:13.035Z</time>
</trkpt>
<trkpt lat="31.8192500" lon="35.0179400">
<ele>272.480011</ele>
<time>2021-05-26T12:51:13.035Z</time>
</trkpt>
<trkpt lat="31.8196000" lon="35.0175300">
<ele>274.510010</ele>
<time>2021-05-26T12:51:13.035Z</time>
</trkpt>
<trkpt lat="31.8196300" lon="35.0174600">
<ele>274.809998</ele>
<time>2021-05-26T12:51:13.035Z</time>
</trkpt>
<trkpt lat="31.8200100" lon="35.0170400">
<ele>273.429993</ele>
<time>2021-05-26T12:51:13.035Z</time>
</trkpt>
<trkpt lat="31.8201800" lon="35.0168900">
<ele>269.199982</ele>
<time>2021-05-26T12:51:13.035Z</time>
</trkpt>
<trkpt lat="31.8204500" lon="35.0167100">
<ele>265.339996</ele>
<time>2021-05-26T12:51:13.035Z</time>
</trkpt>
<trkpt lat="31.8206700" lon="35.0165200">
<ele>263.769989</ele>
<time>2021-05-26T12:51:13.035Z</time>
</trkpt>
<trkpt lat="31.8207900" lon="35.0163700">
<ele>263.880005</ele>
<time>2021-05-26T12:51:13.036Z</time>
</trkpt>
<trkpt lat="31.8208100" lon="35.0162700">
<ele>264.239990</ele>
<time>2021-05-26T12:51:13.036Z</time>
</trkpt>
<trkpt lat="31.8208200" lon="35.0162300">
<ele>264.440002</ele>
<time>2021-05-26T12:51:13.036Z</time>
</trkpt>
<trkpt lat="31.8208200" lon="35.0161200">
<ele>264.779999</ele>
<time>2021-05-26T12:51:13.036Z</time>
</trkpt>
<trkpt lat="31.8207900" lon="35.0160000">
<ele>263.700012</ele>
<time>2021-05-26T12:51:13.036Z</time>
</trkpt>
<trkpt lat="31.8207400" lon="35.0159100">
<ele>262.690002</ele>
<time>2021-05-26T12:51:13.036Z</time>
</trkpt>
<trkpt lat="31.8205500" lon="35.0158000">
<ele>261.149994</ele>
<time>2021-05-26T12:51:13.036Z</time>
</trkpt>
<trkpt lat="31.8204600" lon="35.0156700">
<ele>261.670013</ele>
<time>2021-05-26T12:51:13.036Z</time>
</trkpt>
<trkpt lat="31.8204400" lon="35.0156000">
<ele>261.619995</ele>
<time>2021-05-26T12:51:13.036Z</time>
</trkpt>
<trkpt lat="31.8204300" lon="35.0155100">
<ele>261.019989</ele>
<time>2021-05-26T12:51:13.036Z</time>
</trkpt>
<trkpt lat="31.8204300" lon="35.0153700">
<ele>259.419983</ele>
<time>2021-05-26T12:51:13.036Z</time>
</trkpt>
<trkpt lat="31.8204400" lon="35.0152900">
<ele>258.389984</ele>
<time>2021-05-26T12:51:13.036Z</time>
</trkpt>
<trkpt lat="31.8204800" lon="35.0151700">
<ele>258.200012</ele>
<time>2021-05-26T12:51:13.036Z</time>
</trkpt>
<trkpt lat="31.8205500" lon="35.0150800">
<ele>257.769989</ele>
<time>2021-05-26T12:51:13.036Z</time>
</trkpt>
<trkpt lat="31.8206900" lon="35.0149800">
<ele>258.290009</ele>
<time>2021-05-26T12:51:13.036Z</time>
</trkpt>
<trkpt lat="31.8210200" lon="35.0147900">
<ele>259.910004</ele>
<time>2021-05-26T12:51:13.037Z</time>
</trkpt>
<trkpt lat="31.8211500" lon="35.0146900">
<ele>258.850006</ele>
<time>2021-05-26T12:51:13.037Z</time>
</trkpt>
<trkpt lat="31.8214000" lon="35.0144600">
<ele>253.379990</ele>
<time>2021-05-26T12:51:13.037Z</time>
</trkpt>
<trkpt lat="31.8214900" lon="35.0143300">
<ele>254.530014</ele>
<time>2021-05-26T12:51:13.037Z</time>
</trkpt>
<trkpt lat="31.8216100" lon="35.0140200">
<ele>255.259995</ele>
<time>2021-05-26T12:51:13.037Z</time>
</trkpt>
<trkpt lat="31.8218700" lon="35.0129000">
<ele>253.690002</ele>
<time>2021-05-26T12:51:13.037Z</time>
</trkpt>
<trkpt lat="31.8219500" lon="35.0125100">
<ele>253.970001</ele>
<time>2021-05-26T12:51:13.037Z</time>
</trkpt>
<trkpt lat="31.8219700" lon="35.0122500">
<ele>254.819992</ele>
<time>2021-05-26T12:51:13.037Z</time>
</trkpt>
<trkpt lat="31.8219700" lon="35.0121100">
<ele>254.870010</ele>
<time>2021-05-26T12:51:13.037Z</time>
</trkpt>
<trkpt lat="31.8219600" lon="35.0120200">
<ele>254.899994</ele>
<time>2021-05-26T12:51:13.037Z</time>
</trkpt>
<trkpt lat="31.8218300" lon="35.0115600">
<ele>256.529999</ele>
<time>2021-05-26T12:51:13.037Z</time>
</trkpt>
<trkpt lat="31.8216900" lon="35.0108800">
<ele>255.100006</ele>
<time>2021-05-26T12:51:13.037Z</time>
</trkpt>
<trkpt lat="31.8215700" lon="35.0106300">
<ele>256.100006</ele>
<time>2021-05-26T12:51:13.037Z</time>
</trkpt>
<trkpt lat="31.8215200" lon="35.0103900">
<ele>255.730011</ele>
<time>2021-05-26T12:51:13.037Z</time>
</trkpt>
<trkpt lat="31.8215100" lon="35.0102900">
<ele>255.320007</ele>
<time>2021-05-26T12:51:13.037Z</time>
</trkpt>
<trkpt lat="31.8215100" lon="35.0101100">
<ele>254.649994</ele>
<time>2021-05-26T12:51:13.037Z</time>
</trkpt>
<trkpt lat="31.8215200" lon="35.0099200">
<ele>254.570007</ele>
<time>2021-05-26T12:51:13.037Z</time>
</trkpt>
<trkpt lat="31.8215600" lon="35.0098300">
<ele>254.239990</ele>
<time>2021-05-26T12:51:13.037Z</time>
</trkpt>
<trkpt lat="31.8216500" lon="35.0096900">
<ele>252.669998</ele>
<time>2021-05-26T12:51:13.037Z</time>
</trkpt>
<trkpt lat="31.8217400" lon="35.0096100">
<ele>252.070007</ele>
<time>2021-05-26T12:51:13.037Z</time>
</trkpt>
<trkpt lat="31.8223400" lon="35.0091700">
<ele>246.729996</ele>
<time>2021-05-26T12:51:13.037Z</time>
</trkpt>
<trkpt lat="31.8224200" lon="35.0090700">
<ele>246.310013</ele>
<time>2021-05-26T12:51:13.037Z</time>
</trkpt>
<trkpt lat="31.8225600" lon="35.0088800">
<ele>245.799988</ele>
<time>2021-05-26T12:51:13.037Z</time>
</trkpt>
<trkpt lat="31.8228200" lon="35.0081500">
<ele>244.300003</ele>
<time>2021-05-26T12:51:13.037Z</time>
</trkpt>
<trkpt lat="31.8229400" lon="35.0078800">
<ele>245.099991</ele>
<time>2021-05-26T12:51:13.037Z</time>
</trkpt>
<trkpt lat="31.8230300" lon="35.0076900">
<ele>245.179993</ele>
<time>2021-05-26T12:51:13.037Z</time>
</trkpt>
<trkpt lat="31.8232700" lon="35.0073200">
<ele>242.180008</ele>
<time>2021-05-26T12:51:13.037Z</time>
</trkpt>
<trkpt lat="31.8239900" lon="35.0061400">
<ele>241.179993</ele>
<time>2021-05-26T12:51:13.037Z</time>
</trkpt>
<trkpt lat="31.8244100" lon="35.0055800">
<ele>234.680008</ele>
<time>2021-05-26T12:51:13.038Z</time>
</trkpt>
<trkpt lat="31.8246000" lon="35.0053600">
<ele>232.760010</ele>
<time>2021-05-26T12:51:13.038Z</time>
</trkpt>
<trkpt lat="31.8248200" lon="35.0049600">
<ele>232.010010</ele>
<time>2021-05-26T12:51:13.038Z</time>
</trkpt>
<trkpt lat="31.8248800" lon="35.0048400">
<ele>232.379990</ele>
<time>2021-05-26T12:51:13.038Z</time>
</trkpt>
<trkpt lat="31.8249300" lon="35.0046600">
<ele>232.330002</ele>
<time>2021-05-26T12:51:13.038Z</time>
</trkpt>
<trkpt lat="31.8249600" lon="35.0045100">
<ele>232.059998</ele>
<time>2021-05-26T12:51:13.038Z</time>
</trkpt>
<trkpt lat="31.8250900" lon="35.0030600">
<ele>228.310013</ele>
<time>2021-05-26T12:51:13.038Z</time>
</trkpt>
<trkpt lat="31.8251000" lon="35.0026100">
<ele>230.490005</ele>
<time>2021-05-26T12:51:13.038Z</time>
</trkpt>
<trkpt lat="31.8250600" lon="35.0022100">
<ele>230.699997</ele>
<time>2021-05-26T12:51:13.038Z</time>
</trkpt>
<trkpt lat="31.8249200" lon="35.0017700">
<ele>229.210007</ele>
<time>2021-05-26T12:51:13.038Z</time>
</trkpt>
<trkpt lat="31.8246700" lon="35.0011600">
<ele>226.759995</ele>
<time>2021-05-26T12:51:13.038Z</time>
</trkpt>
<trkpt lat="31.8244600" lon="35.0007100">
<ele>225.019989</ele>
<time>2021-05-26T12:51:13.038Z</time>
</trkpt>
<trkpt lat="31.8244200" lon="35.0006200">
<ele>224.820007</ele>
<time>2021-05-26T12:51:13.038Z</time>
</trkpt>
<trkpt lat="31.8243900" lon="35.0005000">
<ele>224.419998</ele>
<time>2021-05-26T12:51:13.038Z</time>
</trkpt>
<trkpt lat="31.8241400" lon="34.9998100">
<ele>224.509995</ele>
<time>2021-05-26T12:51:13.038Z</time>
</trkpt>
<trkpt lat="31.8239700" lon="34.9994500">
<ele>226.230011</ele>
<time>2021-05-26T12:51:13.038Z</time>
</trkpt>
<trkpt lat="31.8238700" lon="34.9993000">
<ele>229.100006</ele>
<time>2021-05-26T12:51:13.038Z</time>
</trkpt>
<trkpt lat="31.8235700" lon="34.9989600">
<ele>237.360001</ele>
<time>2021-05-26T12:51:13.038Z</time>
</trkpt>
<trkpt lat="31.8235500" lon="34.9988800">
<ele>236.729996</ele>
<time>2021-05-26T12:51:13.039Z</time>
</trkpt>
<trkpt lat="31.8235400" lon="34.9988000">
<ele>235.589996</ele>
<time>2021-05-26T12:51:13.039Z</time>
</trkpt>
<trkpt lat="31.8235300" lon="34.9987200">
<ele>234.479996</ele>
<time>2021-05-26T12:51:13.039Z</time>
</trkpt>
<trkpt lat="31.8235400" lon="34.9982700">
<ele>228.789993</ele>
<time>2021-05-26T12:51:13.039Z</time>
</trkpt>
<trkpt lat="31.8235300" lon="34.9981400">
<ele>229.039993</ele>
<time>2021-05-26T12:51:13.039Z</time>
</trkpt>
<trkpt lat="31.8234400" lon="34.9978900">
<ele>230.940002</ele>
<time>2021-05-26T12:51:13.039Z</time>
</trkpt>
<trkpt lat="31.8233700" lon="34.9976900">
<ele>232.019989</ele>
<time>2021-05-26T12:51:13.039Z</time>
</trkpt>
<trkpt lat="31.8233400" lon="34.9975400">
<ele>232.059998</ele>
<time>2021-05-26T12:51:13.039Z</time>
</trkpt>
<trkpt lat="31.8232500" lon="34.9969600">
<ele>228.030014</ele>
<time>2021-05-26T12:51:13.039Z</time>
</trkpt>
<trkpt lat="31.8232600" lon="34.9965200">
<ele>226.330002</ele>
<time>2021-05-26T12:51:13.039Z</time>
</trkpt>
<trkpt lat="31.8234400" lon="34.9958100">
<ele>219.599991</ele>
<time>2021-05-26T12:51:13.039Z</time>
</trkpt>
<trkpt lat="31.8228300" lon="34.9956700">
<ele>218.270004</ele>
<time>2021-05-26T12:51:13.039Z</time>
</trkpt>
<trkpt lat="31.8224700" lon="34.9955100">
<ele>213.529999</ele>
<time>2021-05-26T12:51:13.039Z</time>
</trkpt>
<trkpt lat="31.8224500" lon="34.9955100">
<ele>213.329987</ele>
<time>2021-05-26T12:51:13.039Z</time>
</trkpt>
<trkpt lat="31.8221600" lon="34.9955300">
<ele>211.470001</ele>
<time>2021-05-26T12:51:13.039Z</time>
</trkpt>
<trkpt lat="31.8215900" lon="34.9961600">
<ele>209.349991</ele>
<time>2021-05-26T12:51:13.039Z</time>
</trkpt>
<trkpt lat="31.8212800" lon="34.9964000">
<ele>209.900009</ele>
<time>2021-05-26T12:51:13.039Z</time>
</trkpt>
<trkpt lat="31.8211500" lon="34.9964200">
<ele>208.640015</ele>
<time>2021-05-26T12:51:13.039Z</time>
</trkpt>
<trkpt lat="31.8208500" lon="34.9964200">
<ele>215.009995</ele>
<time>2021-05-26T12:51:13.039Z</time>
</trkpt>
<trkpt lat="31.8204700" lon="34.9963900">
<ele>223.250000</ele>
<time>2021-05-26T12:51:13.039Z</time>
</trkpt>
<trkpt lat="31.8199600" lon="34.9963100">
<ele>216.620010</ele>
<time>2021-05-26T12:51:13.040Z</time>
</trkpt>
<trkpt lat="31.8195300" lon="34.9963000">
<ele>217.459991</ele>
<time>2021-05-26T12:51:13.040Z</time>
</trkpt>
<trkpt lat="31.8191600" lon="34.9964900">
<ele>221.889984</ele>
<time>2021-05-26T12:51:13.040Z</time>
</trkpt>
<trkpt lat="31.8191400" lon="34.9964100">
<ele>220.739990</ele>
<time>2021-05-26T12:51:13.040Z</time>
</trkpt>
<trkpt lat="31.8190200" lon="34.9962300">
<ele>221.269989</ele>
<time>2021-05-26T12:51:13.040Z</time>
</trkpt>
<trkpt lat="31.8188900" lon="34.9959900">
<ele>222.550003</ele>
<time>2021-05-26T12:51:13.040Z</time>
</trkpt>
<trkpt lat="31.8188400" lon="34.9958300">
<ele>222.550003</ele>
<time>2021-05-26T12:51:13.040Z</time>
</trkpt>
<trkpt lat="31.8188100" lon="34.9957000">
<ele>223.539993</ele>
<time>2021-05-26T12:51:13.040Z</time>
</trkpt>
<trkpt lat="31.8187500" lon="34.9955400">
<ele>224.580002</ele>
<time>2021-05-26T12:51:13.040Z</time>
</trkpt>
<trkpt lat="31.8187500" lon="34.9953700">
<ele>225.500000</ele>
<time>2021-05-26T12:51:13.040Z</time>
</trkpt>
<trkpt lat="31.8187700" lon="34.9952600">
<ele>226.110001</ele>
<time>2021-05-26T12:51:13.040Z</time>
</trkpt>
<trkpt lat="31.8188200" lon="34.9949700">
<ele>230.330002</ele>
<time>2021-05-26T12:51:13.040Z</time>
</trkpt>
<trkpt lat="31.8188200" lon="34.9948400">
<ele>233.839996</ele>
<time>2021-05-26T12:51:13.040Z</time>
</trkpt>
<trkpt lat="31.8188100" lon="34.9947700">
<ele>235.310013</ele>
<time>2021-05-26T12:51:13.041Z</time>
</trkpt>
<trkpt lat="31.8187800" lon="34.9947100">
<ele>235.710007</ele>
<time>2021-05-26T12:51:13.041Z</time>
</trkpt>
<trkpt lat="31.8186800" lon="34.9946000">
<ele>236.039993</ele>
<time>2021-05-26T12:51:13.041Z</time>
</trkpt>
<trkpt lat="31.8185300" lon="34.9945600">
<ele>234.739990</ele>
<time>2021-05-26T12:51:13.041Z</time>
</trkpt>
<trkpt lat="31.8183400" lon="34.9945500">
<ele>233.029999</ele>
<time>2021-05-26T12:51:13.041Z</time>
</trkpt>
<trkpt lat="31.8182800" lon="34.9945200">
<ele>233.649994</ele>
<time>2021-05-26T12:51:13.041Z</time>
</trkpt>
<trkpt lat="31.8181400" lon="34.9945000">
<ele>233.559998</ele>
<time>2021-05-26T12:51:13.041Z</time>
</trkpt>
<trkpt lat="31.8180800" lon="34.9944700">
<ele>233.779999</ele>
<time>2021-05-26T12:51:13.041Z</time>
</trkpt>
<trkpt lat="31.8177900" lon="34.9944100">
<ele>239.659988</ele>
<time>2021-05-26T12:51:13.041Z</time>
</trkpt>
<trkpt lat="31.8176200" lon="34.9943500">
<ele>242.710007</ele>
<time>2021-05-26T12:51:13.041Z</time>
</trkpt>
<trkpt lat="31.8174800" lon="34.9943300">
<ele>244.579987</ele>
<time>2021-05-26T12:51:13.041Z</time>
</trkpt>
<trkpt lat="31.8172800" lon="34.9942300">
<ele>250.339996</ele>
<time>2021-05-26T12:51:13.041Z</time>
</trkpt>
<trkpt lat="31.8172100" lon="34.9941600">
<ele>253.250000</ele>
<time>2021-05-26T12:51:13.041Z</time>
</trkpt>
<trkpt lat="31.8171000" lon="34.9938800">
<ele>258.540009</ele>
<time>2021-05-26T12:51:13.041Z</time>
</trkpt>
<trkpt lat="31.8170100" lon="34.9936000">
<ele>261.890015</ele>
<time>2021-05-26T12:51:13.041Z</time>
</trkpt>
<trkpt lat="31.8169200" lon="34.9931100">
<ele>265.470001</ele>
<time>2021-05-26T12:51:13.041Z</time>
</trkpt>
<trkpt lat="31.8168300" lon="34.9929400">
<ele>263.100006</ele>
<time>2021-05-26T12:51:13.041Z</time>
</trkpt>
<trkpt lat="31.8167400" lon="34.9929000">
<ele>261.380005</ele>
<time>2021-05-26T12:51:13.041Z</time>
</trkpt>
<trkpt lat="31.8166300" lon="34.9929000">
<ele>259.679993</ele>
<time>2021-05-26T12:51:13.041Z</time>
</trkpt>
<trkpt lat="31.8165600" lon="34.9929100">
<ele>258.529999</ele>
<time>2021-05-26T12:51:13.041Z</time>
</trkpt>
<trkpt lat="31.8164500" lon="34.9929200">
<ele>256.619995</ele>
<time>2021-05-26T12:51:13.041Z</time>
</trkpt>
<trkpt lat="31.8163300" lon="34.9929800">
<ele>255.300003</ele>
<time>2021-05-26T12:51:13.041Z</time>
</trkpt>
<trkpt lat="31.8162300" lon="34.9930700">
<ele>254.769989</ele>
<time>2021-05-26T12:51:13.041Z</time>
</trkpt>
<trkpt lat="31.8161300" lon="34.9930800">
<ele>253.970001</ele>
<time>2021-05-26T12:51:13.041Z</time>
</trkpt>
<trkpt lat="31.8160500" lon="34.9930800">
<ele>252.909988</ele>
<time>2021-05-26T12:51:13.041Z</time>
</trkpt>
<trkpt lat="31.8159900" lon="34.9930700">
<ele>252.110001</ele>
<time>2021-05-26T12:51:13.041Z</time>
</trkpt>
<trkpt lat="31.8159700" lon="34.9930200">
<ele>252.300003</ele>
<time>2021-05-26T12:51:13.041Z</time>
</trkpt>
<trkpt lat="31.8159700" lon="34.9929000">
<ele>253.399994</ele>
<time>2021-05-26T12:51:13.041Z</time>
</trkpt>
<trkpt lat="31.8159800" lon="34.9927800">
<ele>254.400009</ele>
<time>2021-05-26T12:51:13.041Z</time>
</trkpt>
<trkpt lat="31.8160300" lon="34.9926500">
<ele>256.580017</ele>
<time>2021-05-26T12:51:13.041Z</time>
</trkpt>
<trkpt lat="31.8163900" lon="34.9921500">
<ele>264.029999</ele>
<time>2021-05-26T12:51:13.041Z</time>
</trkpt>
<trkpt lat="31.8165600" lon="34.9917100">
<ele>272.160004</ele>
<time>2021-05-26T12:51:13.042Z</time>
</trkpt>
<trkpt lat="31.8166100" lon="34.9912100">
<ele>284.860016</ele>
<time>2021-05-26T12:51:13.042Z</time>
</trkpt>
<trkpt lat="31.8166300" lon="34.9911300">
<ele>286.739990</ele>
<time>2021-05-26T12:51:13.042Z</time>
</trkpt>
<trkpt lat="31.8166800" lon="34.9910900">
<ele>288.029999</ele>
<time>2021-05-26T12:51:13.042Z</time>
</trkpt>
<trkpt lat="31.8167400" lon="34.9910700">
<ele>288.500000</ele>
<time>2021-05-26T12:51:13.042Z</time>
</trkpt>
<trkpt lat="31.8168100" lon="34.9910700">
<ele>289.109985</ele>
<time>2021-05-26T12:51:13.042Z</time>
</trkpt>
<trkpt lat="31.8169300" lon="34.9911100">
<ele>289.899994</ele>
<time>2021-05-26T12:51:13.042Z</time>
</trkpt>
<trkpt lat="31.8172400" lon="34.9914100">
<ele>293.000000</ele>
<time>2021-05-26T12:51:13.042Z</time>
</trkpt>
<trkpt lat="31.8176100" lon="34.9918700">
<ele>293.540009</ele>
<time>2021-05-26T12:51:13.042Z</time>
</trkpt>
<trkpt lat="31.8178300" lon="34.9920200">
<ele>291.089996</ele>
<time>2021-05-26T12:51:13.042Z</time>
</trkpt>
<trkpt lat="31.8178900" lon="34.9920200">
<ele>290.779999</ele>
<time>2021-05-26T12:51:13.042Z</time>
</trkpt>
<trkpt lat="31.8179600" lon="34.9920200">
<ele>290.410004</ele>
<time>2021-05-26T12:51:13.042Z</time>
</trkpt>
<trkpt lat="31.8180600" lon="34.9920100">
<ele>290.010010</ele>
<time>2021-05-26T12:51:13.042Z</time>
</trkpt>
<trkpt lat="31.8181200" lon="34.9919700">
<ele>289.959991</ele>
<time>2021-05-26T12:51:13.042Z</time>
</trkpt>
<trkpt lat="31.8181900" lon="34.9918200">
<ele>290.459991</ele>
<time>2021-05-26T12:51:13.042Z</time>
</trkpt>
<trkpt lat="31.8180600" lon="34.9916200">
<ele>293.929993</ele>
<time>2021-05-26T12:51:13.042Z</time>
</trkpt>
<trkpt lat="31.8179200" lon="34.9913400">
<ele>295.160004</ele>
<time>2021-05-26T12:51:13.042Z</time>
</trkpt>
<trkpt lat="31.8177000" lon="34.9907800">
<ele>298.209991</ele>
<time>2021-05-26T12:51:13.042Z</time>
</trkpt>
<trkpt lat="31.8174300" lon="34.9902500">
<ele>302.019989</ele>
<time>2021-05-26T12:51:13.042Z</time>
</trkpt>
<trkpt lat="31.8173600" lon="34.9900500">
<ele>299.429993</ele>
<time>2021-05-26T12:51:13.042Z</time>
</trkpt>
<trkpt lat="31.8172400" lon="34.9900600">
<ele>297.890015</ele>
<time>2021-05-26T12:51:13.042Z</time>
</trkpt>
<trkpt lat="31.8170600" lon="34.9900900">
<ele>293.320007</ele>
<time>2021-05-26T12:51:13.042Z</time>
</trkpt>
<trkpt lat="31.8166900" lon="34.9901800">
<ele>285.850006</ele>
<time>2021-05-26T12:51:13.042Z</time>
</trkpt>
<trkpt lat="31.8159600" lon="34.9902900">
<ele>297.070007</ele>
<time>2021-05-26T12:51:13.042Z</time>
</trkpt>
<trkpt lat="31.8157400" lon="34.9903100">
<ele>298.850006</ele>
<time>2021-05-26T12:51:13.042Z</time>
</trkpt>
<trkpt lat="31.8155500" lon="34.9903000">
<ele>298.899994</ele>
<time>2021-05-26T12:51:13.042Z</time>
</trkpt>
<trkpt lat="31.8152200" lon="34.9902300">
<ele>304.380005</ele>
<time>2021-05-26T12:51:13.042Z</time>
</trkpt>
<trkpt lat="31.8148600" lon="34.9900100">
<ele>312.260010</ele>
<time>2021-05-26T12:51:13.043Z</time>
</trkpt>
<trkpt lat="31.8142200" lon="34.9896400">
<ele>319.079987</ele>
<time>2021-05-26T12:51:13.043Z</time>
</trkpt>
<trkpt lat="31.8135600" lon="34.9893900">
<ele>327.279999</ele>
<time>2021-05-26T12:51:13.043Z</time>
</trkpt>
<trkpt lat="31.8134500" lon="34.9893400">
<ele>328.600006</ele>
<time>2021-05-26T12:51:13.043Z</time>
</trkpt>
<trkpt lat="31.8125900" lon="34.9892400">
<ele>315.950012</ele>
<time>2021-05-26T12:51:13.043Z</time>
</trkpt>
<trkpt lat="31.8121600" lon="34.9892000">
<ele>307.140015</ele>
<time>2021-05-26T12:51:13.043Z</time>
</trkpt>
<trkpt lat="31.8117300" lon="34.9892800">
<ele>309.309998</ele>
<time>2021-05-26T12:51:13.043Z</time>
</trkpt>
<trkpt lat="31.8116000" lon="34.9893200">
<ele>309.549988</ele>
<time>2021-05-26T12:51:13.043Z</time>
</trkpt>
<trkpt lat="31.8112900" lon="34.9894900">
<ele>310.100006</ele>
<time>2021-05-26T12:51:13.043Z</time>
</trkpt>
<trkpt lat="31.8111400" lon="34.9895500">
<ele>309.470001</ele>
<time>2021-05-26T12:51:13.043Z</time>
</trkpt>
<trkpt lat="31.8107800" lon="34.9895500">
<ele>305.510010</ele>
<time>2021-05-26T12:51:13.043Z</time>
</trkpt>
<trkpt lat="31.8106100" lon="34.9895600">
<ele>307.339996</ele>
<time>2021-05-26T12:51:13.043Z</time>
</trkpt>
<trkpt lat="31.8104300" lon="34.9895800">
<ele>310.489990</ele>
<time>2021-05-26T12:51:13.043Z</time>
</trkpt>
<trkpt lat="31.8102600" lon="34.9896400">
<ele>313.240021</ele>
<time>2021-05-26T12:51:13.043Z</time>
</trkpt>
<trkpt lat="31.8094800" lon="34.9902400">
<ele>309.510010</ele>
<time>2021-05-26T12:51:13.043Z</time>
</trkpt>
<trkpt lat="31.8080500" lon="34.9914200">
<ele>311.559998</ele>
<time>2021-05-26T12:51:13.043Z</time>
</trkpt>
<trkpt lat="31.8078600" lon="34.9914700">
<ele>312.250000</ele>
<time>2021-05-26T12:51:13.043Z</time>
</trkpt>
<trkpt lat="31.8076900" lon="34.9914300">
<ele>314.880005</ele>
<time>2021-05-26T12:51:13.043Z</time>
</trkpt>
<trkpt lat="31.8075500" lon="34.9913000">
<ele>319.760010</ele>
<time>2021-05-26T12:51:13.043Z</time>
</trkpt>
<trkpt lat="31.8073300" lon="34.9909200">
<ele>325.130005</ele>
<time>2021-05-26T12:51:13.043Z</time>
</trkpt>
<trkpt lat="31.8072000" lon="34.9907100">
<ele>326.350006</ele>
<time>2021-05-26T12:51:13.043Z</time>
</trkpt>
<trkpt lat="31.8069400" lon="34.9905200">
<ele>327.850006</ele>
<time>2021-05-26T12:51:13.043Z</time>
</trkpt>
<trkpt lat="31.8067800" lon="34.9904800">
<ele>326.809998</ele>
<time>2021-05-26T12:51:13.043Z</time>
</trkpt>
<trkpt lat="31.8066800" lon="34.9904800">
<ele>326.260010</ele>
<time>2021-05-26T12:51:13.043Z</time>
</trkpt>
<trkpt lat="31.8063500" lon="34.9904800">
<ele>320.089996</ele>
<time>2021-05-26T12:51:13.043Z</time>
</trkpt>
<trkpt lat="31.8061000" lon="34.9904900">
<ele>320.929993</ele>
<time>2021-05-26T12:51:13.043Z</time>
</trkpt>
<trkpt lat="31.8055700" lon="34.9906500">
<ele>317.690002</ele>
<time>2021-05-26T12:51:13.044Z</time>
</trkpt>
<trkpt lat="31.8043400" lon="34.9915100">
<ele>327.580017</ele>
<time>2021-05-26T12:51:13.044Z</time>
</trkpt>
<trkpt lat="31.8041700" lon="34.9915500">
<ele>329.869995</ele>
<time>2021-05-26T12:51:13.044Z</time>
</trkpt>
<trkpt lat="31.8038900" lon="34.9915500">
<ele>335.720001</ele>
<time>2021-05-26T12:51:13.044Z</time>
</trkpt>
<trkpt lat="31.8037600" lon="34.9915700">
<ele>336.419983</ele>
<time>2021-05-26T12:51:13.044Z</time>
</trkpt>
<trkpt lat="31.8037100" lon="34.9916200">
<ele>337.140015</ele>
<time>2021-05-26T12:51:13.044Z</time>
</trkpt>
<trkpt lat="31.8035900" lon="34.9918200">
<ele>340.010010</ele>
<time>2021-05-26T12:51:13.044Z</time>
</trkpt>
<trkpt lat="31.8035400" lon="34.9919100">
<ele>340.770020</ele>
<time>2021-05-26T12:51:13.044Z</time>
</trkpt>
<trkpt lat="31.8034300" lon="34.9921500">
<ele>342.779999</ele>
<time>2021-05-26T12:51:13.044Z</time>
</trkpt>
<trkpt lat="31.8033200" lon="34.9923600">
<ele>343.890015</ele>
<time>2021-05-26T12:51:13.044Z</time>
</trkpt>
<trkpt lat="31.8032000" lon="34.9925800">
<ele>344.529999</ele>
<time>2021-05-26T12:51:13.044Z</time>
</trkpt>
<trkpt lat="31.8031100" lon="34.9927000">
<ele>342.020020</ele>
<time>2021-05-26T12:51:13.044Z</time>
</trkpt>
<trkpt lat="31.8029500" lon="34.9928700">
<ele>336.979980</ele>
<time>2021-05-26T12:51:13.044Z</time>
</trkpt>
<trkpt lat="31.8028400" lon="34.9929500">
<ele>334.449982</ele>
<time>2021-05-26T12:51:13.044Z</time>
</trkpt>
<trkpt lat="31.8027100" lon="34.9930500">
<ele>332.519989</ele>
<time>2021-05-26T12:51:13.044Z</time>
</trkpt>
<trkpt lat="31.8021800" lon="34.9932800">
<ele>334.850006</ele>
<time>2021-05-26T12:51:13.044Z</time>
</trkpt>
<trkpt lat="31.8021400" lon="34.9933000">
<ele>335.489990</ele>
<time>2021-05-26T12:51:13.044Z</time>
</trkpt>
<trkpt lat="31.8020000" lon="34.9933700">
<ele>338.139984</ele>
<time>2021-05-26T12:51:13.044Z</time>
</trkpt>
<trkpt lat="31.8019100" lon="34.9933900">
<ele>339.470001</ele>
<time>2021-05-26T12:51:13.044Z</time>
</trkpt>
<trkpt lat="31.8017900" lon="34.9934600">
<ele>341.139984</ele>
<time>2021-05-26T12:51:13.044Z</time>
</trkpt>
<trkpt lat="31.8016600" lon="34.9935700">
<ele>341.829987</ele>
<time>2021-05-26T12:51:13.044Z</time>
</trkpt>
<trkpt lat="31.8015700" lon="34.9937000">
<ele>342.850006</ele>
<time>2021-05-26T12:51:13.044Z</time>
</trkpt>
<trkpt lat="31.8014300" lon="34.9939200">
<ele>344.230011</ele>
<time>2021-05-26T12:51:13.044Z</time>
</trkpt>
<trkpt lat="31.8012300" lon="34.9943100">
<ele>342.209991</ele>
<time>2021-05-26T12:51:13.044Z</time>
</trkpt>
<trkpt lat="31.8011900" lon="34.9943900">
<ele>341.769989</ele>
<time>2021-05-26T12:51:13.044Z</time>
</trkpt>
<trkpt lat="31.8011400" lon="34.9944300">
<ele>341.269989</ele>
<time>2021-05-26T12:51:13.044Z</time>
</trkpt>
<trkpt lat="31.8011000" lon="34.9944800">
<ele>341.059998</ele>
<time>2021-05-26T12:51:13.045Z</time>
</trkpt>
<trkpt lat="31.8009900" lon="34.9945800">
<ele>340.010010</ele>
<time>2021-05-26T12:51:13.045Z</time>
</trkpt>
<trkpt lat="31.8008200" lon="34.9946400">
<ele>338.019989</ele>
<time>2021-05-26T12:51:13.045Z</time>
</trkpt>
<trkpt lat="31.8006900" lon="34.9946500">
<ele>337.189972</ele>
<time>2021-05-26T12:51:13.045Z</time>
</trkpt>
<trkpt lat="31.8005800" lon="34.9946500">
<ele>336.399994</ele>
<time>2021-05-26T12:51:13.045Z</time>
</trkpt>
<trkpt lat="31.8002400" lon="34.9946500">
<ele>338.729980</ele>
<time>2021-05-26T12:51:13.045Z</time>
</trkpt>
<trkpt lat="31.8001300" lon="34.9946500">
<ele>338.720001</ele>
<time>2021-05-26T12:51:13.045Z</time>
</trkpt>
<trkpt lat="31.8000000" lon="34.9946500">
<ele>338.699982</ele>
<time>2021-05-26T12:51:13.045Z</time>
</trkpt>
<trkpt lat="31.7997600" lon="34.9947500">
<ele>339.450012</ele>
<time>2021-05-26T12:51:13.045Z</time>
</trkpt>
<trkpt lat="31.7995800" lon="34.9949500">
<ele>342.629974</ele>
<time>2021-05-26T12:51:13.045Z</time>
</trkpt>
<trkpt lat="31.7993200" lon="34.9953800">
<ele>345.759979</ele>
<time>2021-05-26T12:51:13.045Z</time>
</trkpt>
<trkpt lat="31.7991600" lon="34.9955900">
<ele>347.020020</ele>
<time>2021-05-26T12:51:13.045Z</time>
</trkpt>
<trkpt lat="31.7988000" lon="34.9959900">
<ele>347.150024</ele>
<time>2021-05-26T12:51:13.045Z</time>
</trkpt>
<trkpt lat="31.7984800" lon="34.9962800">
<ele>347.869995</ele>
<time>2021-05-26T12:51:13.045Z</time>
</trkpt>
<trkpt lat="31.7982400" lon="34.9966000">
<ele>350.529999</ele>
<time>2021-05-26T12:51:13.045Z</time>
</trkpt>
<trkpt lat="31.7980900" lon="34.9967900">
<ele>350.639984</ele>
<time>2021-05-26T12:51:13.045Z</time>
</trkpt>
<trkpt lat="31.7979900" lon="34.9969100">
<ele>350.790009</ele>
<time>2021-05-26T12:51:13.045Z</time>
</trkpt>
<trkpt lat="31.7977300" lon="34.9971400">
<ele>353.809998</ele>
<time>2021-05-26T12:51:13.046Z</time>
</trkpt>
<trkpt lat="31.7975900" lon="34.9972500">
<ele>352.559998</ele>
<time>2021-05-26T12:51:13.046Z</time>
</trkpt>
<trkpt lat="31.7974600" lon="34.9973100">
<ele>351.050018</ele>
<time>2021-05-26T12:51:13.046Z</time>
</trkpt>
<trkpt lat="31.7973800" lon="34.9973400">
<ele>351.180023</ele>
<time>2021-05-26T12:51:13.046Z</time>
</trkpt>
<trkpt lat="31.7970800" lon="34.9973900">
<ele>354.369995</ele>
<time>2021-05-26T12:51:13.046Z</time>
</trkpt>
<trkpt lat="31.7969400" lon="34.9974100">
<ele>357.080017</ele>
<time>2021-05-26T12:51:13.046Z</time>
</trkpt>
<trkpt lat="31.7967700" lon="34.9974200">
<ele>360.139984</ele>
<time>2021-05-26T12:51:13.046Z</time>
</trkpt>
<trkpt lat="31.7965100" lon="34.9974200">
<ele>365.550018</ele>
<time>2021-05-26T12:51:13.046Z</time>
</trkpt>
<trkpt lat="31.7962700" lon="34.9973700">
<ele>370.610016</ele>
<time>2021-05-26T12:51:13.046Z</time>
</trkpt>
<trkpt lat="31.7960300" lon="34.9972300">
<ele>374.850006</ele>
<time>2021-05-26T12:51:13.046Z</time>
</trkpt>
<trkpt lat="31.7958500" lon="34.9971300">
<ele>377.819977</ele>
<time>2021-05-26T12:51:13.046Z</time>
</trkpt>
<trkpt lat="31.7956000" lon="34.9969600">
<ele>381.610016</ele>
<time>2021-05-26T12:51:13.046Z</time>
</trkpt>
<trkpt lat="31.7955300" lon="34.9968900">
<ele>382.049988</ele>
<time>2021-05-26T12:51:13.046Z</time>
</trkpt>
<trkpt lat="31.7951500" lon="34.9966700">
<ele>380.660004</ele>
<time>2021-05-26T12:51:13.046Z</time>
</trkpt>
<trkpt lat="31.7949600" lon="34.9966200">
<ele>377.899994</ele>
<time>2021-05-26T12:51:13.046Z</time>
</trkpt>
<trkpt lat="31.7949000" lon="34.9966200">
<ele>377.510010</ele>
<time>2021-05-26T12:51:13.046Z</time>
</trkpt>
<trkpt lat="31.7948200" lon="34.9966200">
<ele>376.980011</ele>
<time>2021-05-26T12:51:13.047Z</time>
</trkpt>
<trkpt lat="31.7946000" lon="34.9966900">
<ele>374.880005</ele>
<time>2021-05-26T12:51:13.047Z</time>
</trkpt>
<trkpt lat="31.7942900" lon="34.9968900">
<ele>375.190002</ele>
<time>2021-05-26T12:51:13.047Z</time>
</trkpt>
<trkpt lat="31.7940300" lon="34.9970300">
<ele>376.459991</ele>
<time>2021-05-26T12:51:13.047Z</time>
</trkpt>
<trkpt lat="31.7937400" lon="34.9971800">
<ele>375.389984</ele>
<time>2021-05-26T12:51:13.047Z</time>
</trkpt>
<trkpt lat="31.7930700" lon="34.9974600">
<ele>371.770020</ele>
<time>2021-05-26T12:51:13.047Z</time>
</trkpt>
<trkpt lat="31.7928300" lon="34.9976200">
<ele>367.850006</ele>
<time>2021-05-26T12:51:13.047Z</time>
</trkpt>
<trkpt lat="31.7925600" lon="34.9977100">
<ele>366.949982</ele>
<time>2021-05-26T12:51:13.047Z</time>
</trkpt>
<trkpt lat="31.7924400" lon="34.9977300">
<ele>367.010010</ele>
<time>2021-05-26T12:51:13.047Z</time>
</trkpt>
<trkpt lat="31.7921700" lon="34.9977400">
<ele>368.290009</ele>
<time>2021-05-26T12:51:13.047Z</time>
</trkpt>
<trkpt lat="31.7919500" lon="34.9977300">
<ele>367.500000</ele>
<time>2021-05-26T12:51:13.047Z</time>
</trkpt>
<trkpt lat="31.7918100" lon="34.9977700">
<ele>367.899994</ele>
<time>2021-05-26T12:51:13.047Z</time>
</trkpt>
<trkpt lat="31.7916200" lon="34.9979500">
<ele>372.679993</ele>
<time>2021-05-26T12:51:13.047Z</time>
</trkpt>
<trkpt lat="31.7915400" lon="34.9980100">
<ele>374.760010</ele>
<time>2021-05-26T12:51:13.047Z</time>
</trkpt>
<trkpt lat="31.7914600" lon="34.9980300">
<ele>375.840027</ele>
<time>2021-05-26T12:51:13.047Z</time>
</trkpt>
<trkpt lat="31.7913700" lon="34.9980500">
<ele>376.730011</ele>
<time>2021-05-26T12:51:13.047Z</time>
</trkpt>
<trkpt lat="31.7910400" lon="34.9980400">
<ele>374.559998</ele>
<time>2021-05-26T12:51:13.047Z</time>
</trkpt>
<trkpt lat="31.7909500" lon="34.9980600">
<ele>374.500000</ele>
<time>2021-05-26T12:51:13.047Z</time>
</trkpt>
<trkpt lat="31.7909100" lon="34.9981000">
<ele>375.079987</ele>
<time>2021-05-26T12:51:13.047Z</time>
</trkpt>
<trkpt lat="31.7908900" lon="34.9981400">
<ele>375.720001</ele>
<time>2021-05-26T12:51:13.047Z</time>
</trkpt>
<trkpt lat="31.7908900" lon="34.9983100">
<ele>378.779999</ele>
<time>2021-05-26T12:51:13.047Z</time>
</trkpt>
<trkpt lat="31.7909500" lon="34.9985200">
<ele>382.779999</ele>
<time>2021-05-26T12:51:13.047Z</time>
</trkpt>
<trkpt lat="31.7910400" lon="34.9986300">
<ele>384.910004</ele>
<time>2021-05-26T12:51:13.047Z</time>
</trkpt>
<trkpt lat="31.7912000" lon="34.9987500">
<ele>387.160004</ele>
<time>2021-05-26T12:51:13.047Z</time>
</trkpt>
<trkpt lat="31.7914300" lon="34.9990000">
<ele>387.079987</ele>
<time>2021-05-26T12:51:13.047Z</time>
</trkpt>
<trkpt lat="31.7917700" lon="34.9992700">
<ele>377.070007</ele>
<time>2021-05-26T12:51:13.047Z</time>
</trkpt>
<trkpt lat="31.7920000" lon="34.9995100">
<ele>374.080017</ele>
<time>2021-05-26T12:51:13.048Z</time>
</trkpt>
<trkpt lat="31.7921100" lon="34.9995700">
<ele>374.129974</ele>
<time>2021-05-26T12:51:13.048Z</time>
</trkpt>
<trkpt lat="31.7921900" lon="34.9996000">
<ele>374.170013</ele>
<time>2021-05-26T12:51:13.048Z</time>
</trkpt>
<trkpt lat="31.7922800" lon="34.9996500">
<ele>374.279999</ele>
<time>2021-05-26T12:51:13.048Z</time>
</trkpt>
<trkpt lat="31.7923300" lon="34.9997400">
<ele>374.200012</ele>
<time>2021-05-26T12:51:13.048Z</time>
</trkpt>
<trkpt lat="31.7923800" lon="35.0000000">
<ele>373.300018</ele>
<time>2021-05-26T12:51:13.048Z</time>
</trkpt>
<trkpt lat="31.7923900" lon="35.0000300">
<ele>372.840027</ele>
<time>2021-05-26T12:51:13.048Z</time>
</trkpt>
<trkpt lat="31.7924200" lon="35.0001300">
<ele>371.519989</ele>
<time>2021-05-26T12:51:13.048Z</time>
</trkpt>
<trkpt lat="31.7924400" lon="35.0001500">
<ele>371.219971</ele>
<time>2021-05-26T12:51:13.048Z</time>
</trkpt>
<trkpt lat="31.7924800" lon="35.0002200">
<ele>370.459991</ele>
<time>2021-05-26T12:51:13.048Z</time>
</trkpt>
<trkpt lat="31.7925500" lon="35.0003000">
<ele>369.290009</ele>
<time>2021-05-26T12:51:13.048Z</time>
</trkpt>
<trkpt lat="31.7926700" lon="35.0003800">
<ele>367.779999</ele>
<time>2021-05-26T12:51:13.048Z</time>
</trkpt>
<trkpt lat="31.7928400" lon="35.0004600">
<ele>365.679993</ele>
<time>2021-05-26T12:51:13.048Z</time>
</trkpt>
<trkpt lat="31.7930700" lon="35.0005000">
<ele>362.459991</ele>
<time>2021-05-26T12:51:13.048Z</time>
</trkpt>
<trkpt lat="31.7935900" lon="35.0005000">
<ele>357.229980</ele>
<time>2021-05-26T12:51:13.048Z</time>
</trkpt>
<trkpt lat="31.7936500" lon="35.0005100">
<ele>356.669983</ele>
<time>2021-05-26T12:51:13.048Z</time>
</trkpt>
<trkpt lat="31.7938900" lon="35.0005300">
<ele>354.799988</ele>
<time>2021-05-26T12:51:13.048Z</time>
</trkpt>
<trkpt lat="31.7940100" lon="35.0005300">
<ele>353.109985</ele>
<time>2021-05-26T12:51:13.048Z</time>
</trkpt>
<trkpt lat="31.7941000" lon="35.0005900">
<ele>352.609985</ele>
<time>2021-05-26T12:51:13.048Z</time>
</trkpt>
<trkpt lat="31.7943300" lon="35.0006700">
<ele>352.500000</ele>
<time>2021-05-26T12:51:13.048Z</time>
</trkpt>
<trkpt lat="31.7944300" lon="35.0007500">
<ele>352.550018</ele>
<time>2021-05-26T12:51:13.048Z</time>
</trkpt>
<trkpt lat="31.7945100" lon="35.0007500">
<ele>352.819977</ele>
<time>2021-05-26T12:51:13.048Z</time>
</trkpt>
<trkpt lat="31.7949200" lon="35.0006800">
<ele>356.100006</ele>
<time>2021-05-26T12:51:13.048Z</time>
</trkpt>
<trkpt lat="31.7950500" lon="35.0006700">
<ele>358.519989</ele>
<time>2021-05-26T12:51:13.048Z</time>
</trkpt>
<trkpt lat="31.7953300" lon="35.0006700">
<ele>365.709991</ele>
<time>2021-05-26T12:51:13.048Z</time>
</trkpt>
<trkpt lat="31.7954100" lon="35.0006800">
<ele>367.250000</ele>
<time>2021-05-26T12:51:13.048Z</time>
</trkpt>
<trkpt lat="31.7956700" lon="35.0007900">
<ele>372.750000</ele>
<time>2021-05-26T12:51:13.048Z</time>
</trkpt>
<trkpt lat="31.7958300" lon="35.0009300">
<ele>374.699982</ele>
<time>2021-05-26T12:51:13.049Z</time>
</trkpt>
<trkpt lat="31.7958700" lon="35.0010100">
<ele>374.660004</ele>
<time>2021-05-26T12:51:13.049Z</time>
</trkpt>
<trkpt lat="31.7958800" lon="35.0011100">
<ele>375.150024</ele>
<time>2021-05-26T12:51:13.049Z</time>
</trkpt>
<trkpt lat="31.7958800" lon="35.0012500">
<ele>375.159973</ele>
<time>2021-05-26T12:51:13.049Z</time>
</trkpt>
<trkpt lat="31.7958400" lon="35.0014500">
<ele>376.520020</ele>
<time>2021-05-26T12:51:13.049Z</time>
</trkpt>
<trkpt lat="31.7958200" lon="35.0014900">
<ele>377.019989</ele>
<time>2021-05-26T12:51:13.049Z</time>
</trkpt>
<trkpt lat="31.7956900" lon="35.0017000">
<ele>376.820007</ele>
<time>2021-05-26T12:51:13.049Z</time>
</trkpt>
<trkpt lat="31.7949300" lon="35.0024800">
<ele>379.809998</ele>
<time>2021-05-26T12:51:13.049Z</time>
</trkpt>
<trkpt lat="31.7948900" lon="35.0025200">
<ele>380.059998</ele>
<time>2021-05-26T12:51:13.049Z</time>
</trkpt>
<trkpt lat="31.7946100" lon="35.0027600">
<ele>383.160004</ele>
<time>2021-05-26T12:51:13.049Z</time>
</trkpt>
<trkpt lat="31.7944900" lon="35.0029000">
<ele>384.360016</ele>
<time>2021-05-26T12:51:13.049Z</time>
</trkpt>
<trkpt lat="31.7944200" lon="35.0030000">
<ele>385.019989</ele>
<time>2021-05-26T12:51:13.049Z</time>
</trkpt>
<trkpt lat="31.7940700" lon="35.0036600">
<ele>384.660004</ele>
<time>2021-05-26T12:51:13.049Z</time>
</trkpt>
<trkpt lat="31.7940000" lon="35.0038400">
<ele>382.000000</ele>
<time>2021-05-26T12:51:13.049Z</time>
</trkpt>
<trkpt lat="31.7939200" lon="35.0040200">
<ele>378.490021</ele>
<time>2021-05-26T12:51:13.049Z</time>
</trkpt>
<trkpt lat="31.7935700" lon="35.0044700">
<ele>373.290009</ele>
<time>2021-05-26T12:51:13.049Z</time>
</trkpt>
<trkpt lat="31.7935500" lon="35.0044800">
<ele>373.459991</ele>
<time>2021-05-26T12:51:13.049Z</time>
</trkpt>
<trkpt lat="31.7935200" lon="35.0044900">
<ele>373.709991</ele>
<time>2021-05-26T12:51:13.049Z</time>
</trkpt>
<trkpt lat="31.7933700" lon="35.0045200">
<ele>375.079987</ele>
<time>2021-05-26T12:51:13.049Z</time>
</trkpt>
<trkpt lat="31.7931900" lon="35.0045600">
<ele>375.440002</ele>
<time>2021-05-26T12:51:13.049Z</time>
</trkpt>
<trkpt lat="31.7930900" lon="35.0045600">
<ele>374.989990</ele>
<time>2021-05-26T12:51:13.049Z</time>
</trkpt>
<trkpt lat="31.7930600" lon="35.0046300">
<ele>375.370026</ele>
<time>2021-05-26T12:51:13.049Z</time>
</trkpt>
<trkpt lat="31.7929400" lon="35.0051900">
<ele>375.270020</ele>
<time>2021-05-26T12:51:13.049Z</time>
</trkpt>
<trkpt lat="31.7927600" lon="35.0053700">
<ele>374.959991</ele>
<time>2021-05-26T12:51:13.049Z</time>
</trkpt>
<trkpt lat="31.7914400" lon="35.0066100">
<ele>376.690002</ele>
<time>2021-05-26T12:51:13.049Z</time>
</trkpt>
<trkpt lat="31.7914100" lon="35.0066400">
<ele>376.880005</ele>
<time>2021-05-26T12:51:13.049Z</time>
</trkpt>
<trkpt lat="31.7910800" lon="35.0069500">
<ele>370.539978</ele>
<time>2021-05-26T12:51:13.049Z</time>
</trkpt>
<trkpt lat="31.7907200" lon="35.0072000">
<ele>368.940002</ele>
<time>2021-05-26T12:51:13.050Z</time>
</trkpt>
<trkpt lat="31.7905600" lon="35.0073300">
<ele>370.160004</ele>
<time>2021-05-26T12:51:13.050Z</time>
</trkpt>
<trkpt lat="31.7902300" lon="35.0078900">
<ele>372.459991</ele>
<time>2021-05-26T12:51:13.050Z</time>
</trkpt>
<trkpt lat="31.7900300" lon="35.0081900">
<ele>372.509979</ele>
<time>2021-05-26T12:51:13.050Z</time>
</trkpt>
<trkpt lat="31.7899000" lon="35.0083700">
<ele>372.079987</ele>
<time>2021-05-26T12:51:13.050Z</time>
</trkpt>
<trkpt lat="31.7897800" lon="35.0084700">
<ele>372.100006</ele>
<time>2021-05-26T12:51:13.050Z</time>
</trkpt>
<trkpt lat="31.7896000" lon="35.0085500">
<ele>371.709991</ele>
<time>2021-05-26T12:51:13.050Z</time>
</trkpt>
<trkpt lat="31.7895200" lon="35.0085800">
<ele>371.760010</ele>
<time>2021-05-26T12:51:13.050Z</time>
</trkpt>
<trkpt lat="31.7890900" lon="35.0087000">
<ele>363.330017</ele>
<time>2021-05-26T12:51:13.050Z</time>
</trkpt>
<trkpt lat="31.7886800" lon="35.0088600">
<ele>358.739990</ele>
<time>2021-05-26T12:51:13.050Z</time>
</trkpt>
<trkpt lat="31.7885300" lon="35.0089100">
<ele>356.830017</ele>
<time>2021-05-26T12:51:13.050Z</time>
</trkpt>
<trkpt lat="31.7880800" lon="35.0089800">
<ele>353.280029</ele>
<time>2021-05-26T12:51:13.050Z</time>
</trkpt>
<trkpt lat="31.7877300" lon="35.0091100">
<ele>354.669983</ele>
<time>2021-05-26T12:51:13.050Z</time>
</trkpt>
<trkpt lat="31.7876200" lon="35.0091200">
<ele>355.200012</ele>
<time>2021-05-26T12:51:13.050Z</time>
</trkpt>
<trkpt lat="31.7875000" lon="35.0091300">
<ele>355.809998</ele>
<time>2021-05-26T12:51:13.050Z</time>
</trkpt>
<trkpt lat="31.7873000" lon="35.0091200">
<ele>355.370026</ele>
<time>2021-05-26T12:51:13.050Z</time>
</trkpt>
<trkpt lat="31.7869100" lon="35.0090300">
<ele>355.290009</ele>
<time>2021-05-26T12:51:13.050Z</time>
</trkpt>
<trkpt lat="31.7863500" lon="35.0089600">
<ele>344.760010</ele>
<time>2021-05-26T12:51:13.050Z</time>
</trkpt>
<trkpt lat="31.7859400" lon="35.0089400">
<ele>344.079987</ele>
<time>2021-05-26T12:51:13.050Z</time>
</trkpt>
<trkpt lat="31.7856600" lon="35.0089600">
<ele>343.099976</ele>
<time>2021-05-26T12:51:13.050Z</time>
</trkpt>
<trkpt lat="31.7854900" lon="35.0090100">
<ele>343.420013</ele>
<time>2021-05-26T12:51:13.050Z</time>
</trkpt>
<trkpt lat="31.7853300" lon="35.0091100">
<ele>346.550018</ele>
<time>2021-05-26T12:51:13.050Z</time>
</trkpt>
<trkpt lat="31.7852000" lon="35.0092200">
<ele>347.660004</ele>
<time>2021-05-26T12:51:13.050Z</time>
</trkpt>
<trkpt lat="31.7851500" lon="35.0092900">
<ele>348.350006</ele>
<time>2021-05-26T12:51:13.050Z</time>
</trkpt>
<trkpt lat="31.7850300" lon="35.0095400">
<ele>351.220001</ele>
<time>2021-05-26T12:51:13.050Z</time>
</trkpt>
<trkpt lat="31.7849900" lon="35.0096600">
<ele>352.649994</ele>
<time>2021-05-26T12:51:13.050Z</time>
</trkpt>
<trkpt lat="31.7849500" lon="35.0099900">
<ele>355.989990</ele>
<time>2021-05-26T12:51:13.051Z</time>
</trkpt>
<trkpt lat="31.7849300" lon="35.0107100">
<ele>356.299988</ele>
<time>2021-05-26T12:51:13.051Z</time>
</trkpt>
<trkpt lat="31.7849300" lon="35.0108000">
<ele>356.620026</ele>
<time>2021-05-26T12:51:13.051Z</time>
</trkpt>
<trkpt lat="31.7849500" lon="35.0110200">
<ele>359.000000</ele>
<time>2021-05-26T12:51:13.051Z</time>
</trkpt>
<trkpt lat="31.7850000" lon="35.0111400">
<ele>360.269989</ele>
<time>2021-05-26T12:51:13.051Z</time>
</trkpt>
<trkpt lat="31.7851100" lon="35.0112500">
<ele>355.920013</ele>
<time>2021-05-26T12:51:13.051Z</time>
</trkpt>
<trkpt lat="31.7852700" lon="35.0113100">
<ele>352.100006</ele>
<time>2021-05-26T12:51:13.051Z</time>
</trkpt>
<trkpt lat="31.7854600" lon="35.0113300">
<ele>351.209991</ele>
<time>2021-05-26T12:51:13.051Z</time>
</trkpt>
<trkpt lat="31.7855100" lon="35.0113300">
<ele>351.130005</ele>
<time>2021-05-26T12:51:13.051Z</time>
</trkpt>
<trkpt lat="31.7857400" lon="35.0112900">
<ele>351.350006</ele>
<time>2021-05-26T12:51:13.051Z</time>
</trkpt>
<trkpt lat="31.7859200" lon="35.0111900">
<ele>351.559998</ele>
<time>2021-05-26T12:51:13.051Z</time>
</trkpt>
<trkpt lat="31.7860800" lon="35.0110600">
<ele>351.640015</ele>
<time>2021-05-26T12:51:13.051Z</time>
</trkpt>
<trkpt lat="31.7863400" lon="35.0107700">
<ele>354.019989</ele>
<time>2021-05-26T12:51:13.051Z</time>
</trkpt>
<trkpt lat="31.7864500" lon="35.0106800">
<ele>353.490021</ele>
<time>2021-05-26T12:51:13.051Z</time>
</trkpt>
<trkpt lat="31.7865400" lon="35.0106200">
<ele>353.490021</ele>
<time>2021-05-26T12:51:13.051Z</time>
</trkpt>
<trkpt lat="31.7867500" lon="35.0105500">
<ele>354.029999</ele>
<time>2021-05-26T12:51:13.051Z</time>
</trkpt>
<trkpt lat="31.7870500" lon="35.0105200">
<ele>354.809998</ele>
<time>2021-05-26T12:51:13.051Z</time>
</trkpt>
<trkpt lat="31.7876400" lon="35.0105300">
<ele>353.209991</ele>
<time>2021-05-26T12:51:13.051Z</time>
</trkpt>
<trkpt lat="31.7886800" lon="35.0104900">
<ele>349.940002</ele>
<time>2021-05-26T12:51:13.051Z</time>
</trkpt>
<trkpt lat="31.7888100" lon="35.0104900">
<ele>349.910004</ele>
<time>2021-05-26T12:51:13.051Z</time>
</trkpt>
<trkpt lat="31.7889800" lon="35.0105200">
<ele>350.450012</ele>
<time>2021-05-26T12:51:13.051Z</time>
</trkpt>
<trkpt lat="31.7891900" lon="35.0105300">
<ele>353.190002</ele>
<time>2021-05-26T12:51:13.051Z</time>
</trkpt>
<trkpt lat="31.7894500" lon="35.0105500">
<ele>351.999969</ele>
<time>2021-05-26T12:51:13.051Z</time>
</trkpt>
<trkpt lat="31.7897600" lon="35.0105100">
<ele>349.309998</ele>
<time>2021-05-26T12:51:13.052Z</time>
</trkpt>
<trkpt lat="31.7899400" lon="35.0104000">
<ele>350.209991</ele>
<time>2021-05-26T12:51:13.052Z</time>
</trkpt>
<trkpt lat="31.7901500" lon="35.0103100">
<ele>352.670013</ele>
<time>2021-05-26T12:51:13.052Z</time>
</trkpt>
<trkpt lat="31.7902300" lon="35.0103000">
<ele>353.199982</ele>
<time>2021-05-26T12:51:13.052Z</time>
</trkpt>
<trkpt lat="31.7904900" lon="35.0103100">
<ele>354.009979</ele>
<time>2021-05-26T12:51:13.052Z</time>
</trkpt>
<trkpt lat="31.7912300" lon="35.0104600">
<ele>353.580017</ele>
<time>2021-05-26T12:51:13.052Z</time>
</trkpt>
<trkpt lat="31.7917500" lon="35.0106400">
<ele>352.359985</ele>
<time>2021-05-26T12:51:13.052Z</time>
</trkpt>
<trkpt lat="31.7919600" lon="35.0107000">
<ele>349.970001</ele>
<time>2021-05-26T12:51:13.052Z</time>
</trkpt>
<trkpt lat="31.7921700" lon="35.0107400">
<ele>350.629974</ele>
<time>2021-05-26T12:51:13.052Z</time>
</trkpt>
<trkpt lat="31.7924400" lon="35.0108600">
<ele>349.269989</ele>
<time>2021-05-26T12:51:13.052Z</time>
</trkpt>
<trkpt lat="31.7926100" lon="35.0110900">
<ele>349.829987</ele>
<time>2021-05-26T12:51:13.052Z</time>
</trkpt>
<trkpt lat="31.7927400" lon="35.0112700">
<ele>352.939972</ele>
<time>2021-05-26T12:51:13.052Z</time>
</trkpt>
<trkpt lat="31.7929100" lon="35.0116400">
<ele>354.869995</ele>
<time>2021-05-26T12:51:13.052Z</time>
</trkpt>
<trkpt lat="31.7932000" lon="35.0120400">
<ele>353.220001</ele>
<time>2021-05-26T12:51:13.052Z</time>
</trkpt>
<trkpt lat="31.7932100" lon="35.0120700">
<ele>352.859985</ele>
<time>2021-05-26T12:51:13.052Z</time>
</trkpt>
<trkpt lat="31.7932100" lon="35.0120700">
<ele>352.859985</ele>
<time>2021-05-26T12:51:13.052Z</time>
</trkpt>
<trkpt lat="31.7932100" lon="35.0120700">
<ele>352.859985</ele>
<time>2021-05-26T12:51:13.052Z</time>
</trkpt>
<trkpt lat="31.7934100" lon="35.0125600">
<ele>347.840027</ele>
<time>2021-05-26T12:51:13.052Z</time>
</trkpt>
<trkpt lat="31.7935800" lon="35.0128000">
<ele>347.960022</ele>
<time>2021-05-26T12:51:13.053Z</time>
</trkpt>
<trkpt lat="31.7938400" lon="35.0131700">
<ele>347.209991</ele>
<time>2021-05-26T12:51:13.053Z</time>
</trkpt>
<trkpt lat="31.7940400" lon="35.0136800">
<ele>342.140015</ele>
<time>2021-05-26T12:51:13.053Z</time>
</trkpt>
<trkpt lat="31.7941800" lon="35.0138700">
<ele>340.109985</ele>
<time>2021-05-26T12:51:13.053Z</time>
</trkpt>
<trkpt lat="31.7945700" lon="35.0140000">
<ele>337.189972</ele>
<time>2021-05-26T12:51:13.053Z</time>
</trkpt>
<trkpt lat="31.7959300" lon="35.0142500">
<ele>320.850006</ele>
<time>2021-05-26T12:51:13.053Z</time>
</trkpt>
<trkpt lat="31.7960200" lon="35.0142400">
<ele>320.500000</ele>
<time>2021-05-26T12:51:13.053Z</time>
</trkpt>
<trkpt lat="31.7964100" lon="35.0143100">
<ele>314.660004</ele>
<time>2021-05-26T12:51:13.053Z</time>
</trkpt>
<trkpt lat="31.7967400" lon="35.0143300">
<ele>309.710022</ele>
<time>2021-05-26T12:51:13.053Z</time>
</trkpt>
<trkpt lat="31.7970100" lon="35.0143000">
<ele>307.250000</ele>
<time>2021-05-26T12:51:13.053Z</time>
</trkpt>
<trkpt lat="31.7976700" lon="35.0140800">
<ele>305.630005</ele>
<time>2021-05-26T12:51:13.053Z</time>
</trkpt>
<trkpt lat="31.7979900" lon="35.0139200">
<ele>303.390015</ele>
<time>2021-05-26T12:51:13.053Z</time>
</trkpt>
<trkpt lat="31.7981000" lon="35.0137700">
<ele>302.739990</ele>
<time>2021-05-26T12:51:13.053Z</time>
</trkpt>
<trkpt lat="31.7981800" lon="35.0136900">
<ele>301.410004</ele>
<time>2021-05-26T12:51:13.053Z</time>
</trkpt>
<trkpt lat="31.7983600" lon="35.0138700">
<ele>299.309998</ele>
<time>2021-05-26T12:51:13.053Z</time>
</trkpt>
<trkpt lat="31.7983300" lon="35.0139500">
<ele>299.600006</ele>
<time>2021-05-26T12:51:13.053Z</time>
</trkpt>
<trkpt lat="31.7983200" lon="35.0139800">
<ele>299.500000</ele>
<time>2021-05-26T12:51:13.053Z</time>
</trkpt>
<trkpt lat="31.7983100" lon="35.0140100">
<ele>299.419983</ele>
<time>2021-05-26T12:51:13.053Z</time>
</trkpt>
<trkpt lat="31.7983000" lon="35.0140500">
<ele>299.269989</ele>
<time>2021-05-26T12:51:13.054Z</time>
</trkpt>
<trkpt lat="31.7983000" lon="35.0140800">
<ele>299.070007</ele>
<time>2021-05-26T12:51:13.054Z</time>
</trkpt>
<trkpt lat="31.7982900" lon="35.0141200">
<ele>298.929993</ele>
<time>2021-05-26T12:51:13.054Z</time>
</trkpt>
<trkpt lat="31.7982900" lon="35.0141500">
<ele>298.730011</ele>
<time>2021-05-26T12:51:13.054Z</time>
</trkpt>
<trkpt lat="31.7982800" lon="35.0141900">
<ele>298.309998</ele>
<time>2021-05-26T12:51:13.054Z</time>
</trkpt>
<trkpt lat="31.7982800" lon="35.0142300">
<ele>297.529999</ele>
<time>2021-05-26T12:51:13.054Z</time>
</trkpt>
<trkpt lat="31.7982700" lon="35.0142700">
<ele>296.929993</ele>
<time>2021-05-26T12:51:13.054Z</time>
</trkpt>
<trkpt lat="31.7982300" lon="35.0147400">
<ele>294.980011</ele>
<time>2021-05-26T12:51:13.054Z</time>
</trkpt>
<trkpt lat="31.7982300" lon="35.0147900">
<ele>296.350006</ele>
<time>2021-05-26T12:51:13.054Z</time>
</trkpt>
<trkpt lat="31.7982200" lon="35.0148400">
<ele>297.850006</ele>
<time>2021-05-26T12:51:13.054Z</time>
</trkpt>
<trkpt lat="31.7982200" lon="35.0148500">
<ele>298.119995</ele>
<time>2021-05-26T12:51:13.054Z</time>
</trkpt>
<trkpt lat="31.7982200" lon="35.0148500">
<ele>298.119995</ele>
<time>2021-05-26T12:51:13.054Z</time>
</trkpt>
<trkpt lat="31.7982100" lon="35.0148800">
<ele>299.070007</ele>
<time>2021-05-26T12:51:13.054Z</time>
</trkpt>
<trkpt lat="31.7982000" lon="35.0149300">
<ele>300.540009</ele>
<time>2021-05-26T12:51:13.054Z</time>
</trkpt>
<trkpt lat="31.7981800" lon="35.0149700">
<ele>301.850006</ele>
<time>2021-05-26T12:51:13.054Z</time>
</trkpt>
<trkpt lat="31.7981500" lon="35.0150100">
<ele>303.119995</ele>
<time>2021-05-26T12:51:13.054Z</time>
</trkpt>
<trkpt lat="31.7981300" lon="35.0150400">
<ele>303.800018</ele>
<time>2021-05-26T12:51:13.054Z</time>
</trkpt>
<trkpt lat="31.7980900" lon="35.0150700">
<ele>304.789978</ele>
<time>2021-05-26T12:51:13.055Z</time>
</trkpt>
<trkpt lat="31.7980600" lon="35.0151000">
<ele>305.730011</ele>
<time>2021-05-26T12:51:13.055Z</time>
</trkpt>
<trkpt lat="31.7980100" lon="35.0151200">
<ele>305.669983</ele>
<time>2021-05-26T12:51:13.055Z</time>
</trkpt>
<trkpt lat="31.7978300" lon="35.0152100">
<ele>305.339996</ele>
<time>2021-05-26T12:51:13.055Z</time>
</trkpt>
<trkpt lat="31.7976500" lon="35.0152900">
<ele>300.839996</ele>
<time>2021-05-26T12:51:13.055Z</time>
</trkpt>
<trkpt lat="31.7975800" lon="35.0153200">
<ele>298.970001</ele>
<time>2021-05-26T12:51:13.055Z</time>
</trkpt>
<trkpt lat="31.7974800" lon="35.0153400">
<ele>296.989990</ele>
<time>2021-05-26T12:51:13.055Z</time>
</trkpt>
<trkpt lat="31.7974600" lon="35.0153400">
<ele>297.290009</ele>
<time>2021-05-26T12:51:13.055Z</time>
</trkpt>
<trkpt lat="31.7974400" lon="35.0153400">
<ele>297.600006</ele>
<time>2021-05-26T12:51:13.055Z</time>
</trkpt>
<trkpt lat="31.7974300" lon="35.0153500">
<ele>298.110016</ele>
<time>2021-05-26T12:51:13.055Z</time>
</trkpt>
<trkpt lat="31.7974100" lon="35.0153600">
<ele>298.730011</ele>
<time>2021-05-26T12:51:13.055Z</time>
</trkpt>
<trkpt lat="31.7973900" lon="35.0153700">
<ele>299.309998</ele>
<time>2021-05-26T12:51:13.055Z</time>
</trkpt>
<trkpt lat="31.7973800" lon="35.0153800">
<ele>299.739990</ele>
<time>2021-05-26T12:51:13.055Z</time>
</trkpt>
<trkpt lat="31.7973700" lon="35.0154000">
<ele>300.440002</ele>
<time>2021-05-26T12:51:13.055Z</time>
</trkpt>
<trkpt lat="31.7973600" lon="35.0154200">
<ele>301.100006</ele>
<time>2021-05-26T12:51:13.055Z</time>
</trkpt>
<trkpt lat="31.7973500" lon="35.0154400">
<ele>301.729980</ele>
<time>2021-05-26T12:51:13.055Z</time>
</trkpt>
<trkpt lat="31.7973400" lon="35.0154600">
<ele>302.309998</ele>
<time>2021-05-26T12:51:13.055Z</time>
</trkpt>
<trkpt lat="31.7973400" lon="35.0154800">
<ele>302.839996</ele>
<time>2021-05-26T12:51:13.055Z</time>
</trkpt>
<trkpt lat="31.7973400" lon="35.0155000">
<ele>303.369995</ele>
<time>2021-05-26T12:51:13.055Z</time>
</trkpt>
<trkpt lat="31.7973500" lon="35.0155300">
<ele>304.210022</ele>
<time>2021-05-26T12:51:13.055Z</time>
</trkpt>
<trkpt lat="31.7973600" lon="35.0155500">
<ele>304.830017</ele>
<time>2021-05-26T12:51:13.056Z</time>
</trkpt>
<trkpt lat="31.7973600" lon="35.0155600">
<ele>305.110016</ele>
<time>2021-05-26T12:51:13.056Z</time>
</trkpt>
<trkpt lat="31.7973200" lon="35.0155900">
<ele>305.649994</ele>
<time>2021-05-26T12:51:13.056Z</time>
</trkpt>
<trkpt lat="31.7972500" lon="35.0156100">
<ele>305.750000</ele>
<time>2021-05-26T12:51:13.056Z</time>
</trkpt>
<trkpt lat="31.7971900" lon="35.0156100">
<ele>305.799988</ele>
<time>2021-05-26T12:51:13.056Z</time>
</trkpt>
<trkpt lat="31.7959200" lon="35.0154800">
<ele>307.950012</ele>
<time>2021-05-26T12:51:13.056Z</time>
</trkpt>
<trkpt lat="31.7957600" lon="35.0154800">
<ele>307.540009</ele>
<time>2021-05-26T12:51:13.056Z</time>
</trkpt>
<trkpt lat="31.7956900" lon="35.0154900">
<ele>307.750000</ele>
<time>2021-05-26T12:51:13.056Z</time>
</trkpt>
<trkpt lat="31.7951100" lon="35.0157200">
<ele>313.590027</ele>
<time>2021-05-26T12:51:13.056Z</time>
</trkpt>
<trkpt lat="31.7950400" lon="35.0156500">
<ele>313.670013</ele>
<time>2021-05-26T12:51:13.056Z</time>
</trkpt>
<trkpt lat="31.7948000" lon="35.0154900">
<ele>319.149994</ele>
<time>2021-05-26T12:51:13.056Z</time>
</trkpt>
<trkpt lat="31.7939900" lon="35.0153400">
<ele>328.020020</ele>
<time>2021-05-26T12:51:13.056Z</time>
</trkpt>
<trkpt lat="31.7938100" lon="35.0153400">
<ele>327.959991</ele>
<time>2021-05-26T12:51:13.056Z</time>
</trkpt>
<trkpt lat="31.7936500" lon="35.0153300">
<ele>327.910004</ele>
<time>2021-05-26T12:51:13.056Z</time>
</trkpt>
<trkpt lat="31.7932400" lon="35.0152700">
<ele>326.229980</ele>
<time>2021-05-26T12:51:13.056Z</time>
</trkpt>
<trkpt lat="31.7930900" lon="35.0153000">
<ele>327.200012</ele>
<time>2021-05-26T12:51:13.056Z</time>
</trkpt>
<trkpt lat="31.7928900" lon="35.0153800">
<ele>327.880005</ele>
<time>2021-05-26T12:51:13.056Z</time>
</trkpt>
<trkpt lat="31.7927900" lon="35.0154900">
<ele>329.099976</ele>
<time>2021-05-26T12:51:13.056Z</time>
</trkpt>
<trkpt lat="31.7927300" lon="35.0155500">
<ele>330.269989</ele>
<time>2021-05-26T12:51:13.056Z</time>
</trkpt>
<trkpt lat="31.7926400" lon="35.0156200">
<ele>332.040009</ele>
<time>2021-05-26T12:51:13.056Z</time>
</trkpt>
<trkpt lat="31.7925100" lon="35.0156800">
<ele>333.739990</ele>
<time>2021-05-26T12:51:13.056Z</time>
</trkpt>
<trkpt lat="31.7925100" lon="35.0156800">
<ele>333.739990</ele>
<time>2021-05-26T12:51:13.057Z</time>
</trkpt>
<trkpt lat="31.7925100" lon="35.0156800">
<ele>333.739990</ele>
<time>2021-05-26T12:51:13.057Z</time>
</trkpt>
<trkpt lat="31.7924700" lon="35.0156900">
<ele>333.779999</ele>
<time>2021-05-26T12:51:13.057Z</time>
</trkpt>
<trkpt lat="31.7923800" lon="35.0157600">
<ele>333.989990</ele>
<time>2021-05-26T12:51:13.057Z</time>
</trkpt>
<trkpt lat="31.7923000" lon="35.0158700">
<ele>334.940002</ele>
<time>2021-05-26T12:51:13.057Z</time>
</trkpt>
<trkpt lat="31.7922400" lon="35.0159600">
<ele>337.579987</ele>
<time>2021-05-26T12:51:13.057Z</time>
</trkpt>
<trkpt lat="31.7921900" lon="35.0161100">
<ele>342.380005</ele>
<time>2021-05-26T12:51:13.057Z</time>
</trkpt>
<trkpt lat="31.7921400" lon="35.0164300">
<ele>346.210022</ele>
<time>2021-05-26T12:51:13.057Z</time>
</trkpt>
<trkpt lat="31.7921300" lon="35.0169300">
<ele>345.690002</ele>
<time>2021-05-26T12:51:13.057Z</time>
</trkpt>
<trkpt lat="31.7921800" lon="35.0175800">
<ele>352.709991</ele>
<time>2021-05-26T12:51:13.057Z</time>
</trkpt>
<trkpt lat="31.7924500" lon="35.0183600">
<ele>362.650024</ele>
<time>2021-05-26T12:51:13.057Z</time>
</trkpt>
<trkpt lat="31.7926400" lon="35.0187800">
<ele>362.990021</ele>
<time>2021-05-26T12:51:13.057Z</time>
</trkpt>
<trkpt lat="31.7926600" lon="35.0189000">
<ele>363.009979</ele>
<time>2021-05-26T12:51:13.057Z</time>
</trkpt>
<trkpt lat="31.7926400" lon="35.0190200">
<ele>363.230011</ele>
<time>2021-05-26T12:51:13.057Z</time>
</trkpt>
<trkpt lat="31.7925500" lon="35.0191400">
<ele>364.320007</ele>
<time>2021-05-26T12:51:13.057Z</time>
</trkpt>
<trkpt lat="31.7923200" lon="35.0193000">
<ele>363.510010</ele>
<time>2021-05-26T12:51:13.057Z</time>
</trkpt>
<trkpt lat="31.7921900" lon="35.0193500">
<ele>362.829987</ele>
<time>2021-05-26T12:51:13.057Z</time>
</trkpt>
<trkpt lat="31.7914300" lon="35.0193600">
<ele>371.389984</ele>
<time>2021-05-26T12:51:13.057Z</time>
</trkpt>
<trkpt lat="31.7912600" lon="35.0193400">
<ele>372.159973</ele>
<time>2021-05-26T12:51:13.057Z</time>
</trkpt>
<trkpt lat="31.7911000" lon="35.0193300">
<ele>372.649994</ele>
<time>2021-05-26T12:51:13.058Z</time>
</trkpt>
<trkpt lat="31.7909400" lon="35.0192900">
<ele>375.950012</ele>
<time>2021-05-26T12:51:13.058Z</time>
</trkpt>
<trkpt lat="31.7905300" lon="35.0191600">
<ele>376.829987</ele>
<time>2021-05-26T12:51:13.058Z</time>
</trkpt>
<trkpt lat="31.7903200" lon="35.0191400">
<ele>375.700012</ele>
<time>2021-05-26T12:51:13.058Z</time>
</trkpt>
<trkpt lat="31.7901900" lon="35.0191500">
<ele>375.089996</ele>
<time>2021-05-26T12:51:13.058Z</time>
</trkpt>
<trkpt lat="31.7900500" lon="35.0192000">
<ele>374.810028</ele>
<time>2021-05-26T12:51:13.058Z</time>
</trkpt>
<trkpt lat="31.7891100" lon="35.0195700">
<ele>380.869995</ele>
<time>2021-05-26T12:51:13.058Z</time>
</trkpt>
<trkpt lat="31.7889700" lon="35.0196400">
<ele>383.639984</ele>
<time>2021-05-26T12:51:13.058Z</time>
</trkpt>
<trkpt lat="31.7889200" lon="35.0196900">
<ele>385.080017</ele>
<time>2021-05-26T12:51:13.058Z</time>
</trkpt>
<trkpt lat="31.7888400" lon="35.0198200">
<ele>387.470001</ele>
<time>2021-05-26T12:51:13.058Z</time>
</trkpt>
<trkpt lat="31.7887400" lon="35.0200600">
<ele>391.980011</ele>
<time>2021-05-26T12:51:13.058Z</time>
</trkpt>
<trkpt lat="31.7886500" lon="35.0205400">
<ele>401.310028</ele>
<time>2021-05-26T12:51:13.058Z</time>
</trkpt>
<trkpt lat="31.7885600" lon="35.0207600">
<ele>402.139984</ele>
<time>2021-05-26T12:51:13.058Z</time>
</trkpt>
<trkpt lat="31.7884700" lon="35.0208700">
<ele>403.150024</ele>
<time>2021-05-26T12:51:13.058Z</time>
</trkpt>
<trkpt lat="31.7883900" lon="35.0209200">
<ele>403.950012</ele>
<time>2021-05-26T12:51:13.058Z</time>
</trkpt>
<trkpt lat="31.7883100" lon="35.0209400">
<ele>404.190002</ele>
<time>2021-05-26T12:51:13.058Z</time>
</trkpt>
<trkpt lat="31.7880900" lon="35.0209400">
<ele>403.150024</ele>
<time>2021-05-26T12:51:13.058Z</time>
</trkpt>
<trkpt lat="31.7878700" lon="35.0208900">
<ele>400.240021</ele>
<time>2021-05-26T12:51:13.058Z</time>
</trkpt>
<trkpt lat="31.7876700" lon="35.0208100">
<ele>399.600006</ele>
<time>2021-05-26T12:51:13.058Z</time>
</trkpt>
<trkpt lat="31.7875200" lon="35.0207200">
<ele>401.010010</ele>
<time>2021-05-26T12:51:13.058Z</time>
</trkpt>
<trkpt lat="31.7874000" lon="35.0206200">
<ele>402.559998</ele>
<time>2021-05-26T12:51:13.058Z</time>
</trkpt>
<trkpt lat="31.7872700" lon="35.0204700">
<ele>404.390015</ele>
<time>2021-05-26T12:51:13.059Z</time>
</trkpt>
<trkpt lat="31.7871500" lon="35.0203600">
<ele>405.070007</ele>
<time>2021-05-26T12:51:13.059Z</time>
</trkpt>
<trkpt lat="31.7870600" lon="35.0203200">
<ele>405.769989</ele>
<time>2021-05-26T12:51:13.059Z</time>
</trkpt>
<trkpt lat="31.7869900" lon="35.0203100">
<ele>406.610016</ele>
<time>2021-05-26T12:51:13.059Z</time>
</trkpt>
<trkpt lat="31.7868600" lon="35.0203500">
<ele>408.429993</ele>
<time>2021-05-26T12:51:13.059Z</time>
</trkpt>
<trkpt lat="31.7867300" lon="35.0204300">
<ele>410.410004</ele>
<time>2021-05-26T12:51:13.059Z</time>
</trkpt>
<trkpt lat="31.7865900" lon="35.0205500">
<ele>411.940002</ele>
<time>2021-05-26T12:51:13.059Z</time>
</trkpt>
<trkpt lat="31.7864300" lon="35.0207200">
<ele>414.610016</ele>
<time>2021-05-26T12:51:13.059Z</time>
</trkpt>
<trkpt lat="31.7862200" lon="35.0210100">
<ele>418.019989</ele>
<time>2021-05-26T12:51:13.059Z</time>
</trkpt>
<trkpt lat="31.7861200" lon="35.0211100">
<ele>418.959991</ele>
<time>2021-05-26T12:51:13.059Z</time>
</trkpt>
<trkpt lat="31.7857500" lon="35.0214700">
<ele>419.599976</ele>
<time>2021-05-26T12:51:13.059Z</time>
</trkpt>
<trkpt lat="31.7854900" lon="35.0215900">
<ele>417.589996</ele>
<time>2021-05-26T12:51:13.059Z</time>
</trkpt>
<trkpt lat="31.7853000" lon="35.0217000">
<ele>414.950012</ele>
<time>2021-05-26T12:51:13.059Z</time>
</trkpt>
<trkpt lat="31.7849700" lon="35.0218100">
<ele>413.980011</ele>
<time>2021-05-26T12:51:13.059Z</time>
</trkpt>
<trkpt lat="31.7847400" lon="35.0219100">
<ele>414.620026</ele>
<time>2021-05-26T12:51:13.059Z</time>
</trkpt>
<trkpt lat="31.7845900" lon="35.0220200">
<ele>415.709991</ele>
<time>2021-05-26T12:51:13.059Z</time>
</trkpt>
<trkpt lat="31.7845000" lon="35.0221200">
<ele>416.429993</ele>
<time>2021-05-26T12:51:13.059Z</time>
</trkpt>
<trkpt lat="31.7843400" lon="35.0223000">
<ele>419.549988</ele>
<time>2021-05-26T12:51:13.059Z</time>
</trkpt>
<trkpt lat="31.7842500" lon="35.0224400">
<ele>423.919983</ele>
<time>2021-05-26T12:51:13.059Z</time>
</trkpt>
<trkpt lat="31.7842400" lon="35.0224900">
<ele>425.700012</ele>
<time>2021-05-26T12:51:13.059Z</time>
</trkpt>
<trkpt lat="31.7842400" lon="35.0224900">
<ele>425.700012</ele>
<time>2021-05-26T12:51:13.059Z</time>
</trkpt>
<trkpt lat="31.7842400" lon="35.0224900">
<ele>425.700012</ele>
<time>2021-05-26T12:51:13.060Z</time>
</trkpt>
<trkpt lat="31.7842300" lon="35.0225500">
<ele>427.920013</ele>
<time>2021-05-26T12:51:13.060Z</time>
</trkpt>
<trkpt lat="31.7842500" lon="35.0226200">
<ele>431.239990</ele>
<time>2021-05-26T12:51:13.060Z</time>
</trkpt>
<trkpt lat="31.7843000" lon="35.0226900">
<ele>434.759979</ele>
<time>2021-05-26T12:51:13.060Z</time>
</trkpt>
<trkpt lat="31.7844100" lon="35.0228300">
<ele>438.819977</ele>
<time>2021-05-26T12:51:13.060Z</time>
</trkpt>
<trkpt lat="31.7850600" lon="35.0234700">
<ele>440.760010</ele>
<time>2021-05-26T12:51:13.060Z</time>
</trkpt>
<trkpt lat="31.7851800" lon="35.0236200">
<ele>440.189972</ele>
<time>2021-05-26T12:51:13.060Z</time>
</trkpt>
<trkpt lat="31.7852800" lon="35.0238100">
<ele>437.619995</ele>
<time>2021-05-26T12:51:13.060Z</time>
</trkpt>
<trkpt lat="31.7853600" lon="35.0239900">
<ele>436.910004</ele>
<time>2021-05-26T12:51:13.060Z</time>
</trkpt>
<trkpt lat="31.7854200" lon="35.0242600">
<ele>436.140015</ele>
<time>2021-05-26T12:51:13.060Z</time>
</trkpt>
<trkpt lat="31.7856100" lon="35.0252400">
<ele>436.559998</ele>
<time>2021-05-26T12:51:13.060Z</time>
</trkpt>
<trkpt lat="31.7856900" lon="35.0255500">
<ele>436.410004</ele>
<time>2021-05-26T12:51:13.060Z</time>
</trkpt>
<trkpt lat="31.7857400" lon="35.0257200">
<ele>440.730011</ele>
<time>2021-05-26T12:51:13.060Z</time>
</trkpt>
<trkpt lat="31.7858200" lon="35.0258700">
<ele>446.479980</ele>
<time>2021-05-26T12:51:13.060Z</time>
</trkpt>
<trkpt lat="31.7858700" lon="35.0259400">
<ele>446.919983</ele>
<time>2021-05-26T12:51:13.060Z</time>
</trkpt>
<trkpt lat="31.7859600" lon="35.0260200">
<ele>449.000031</ele>
<time>2021-05-26T12:51:13.060Z</time>
</trkpt>
<trkpt lat="31.7861800" lon="35.0261800">
<ele>454.070007</ele>
<time>2021-05-26T12:51:13.060Z</time>
</trkpt>
<trkpt lat="31.7866500" lon="35.0265900">
<ele>454.229980</ele>
<time>2021-05-26T12:51:13.060Z</time>
</trkpt>
<trkpt lat="31.7868900" lon="35.0268300">
<ele>459.799988</ele>
<time>2021-05-26T12:51:13.060Z</time>
</trkpt>
<trkpt lat="31.7870900" lon="35.0269900">
<ele>462.209991</ele>
<time>2021-05-26T12:51:13.060Z</time>
</trkpt>
<trkpt lat="31.7877400" lon="35.0275700">
<ele>463.000031</ele>
<time>2021-05-26T12:51:13.060Z</time>
</trkpt>
<trkpt lat="31.7882300" lon="35.0282400">
<ele>461.859985</ele>
<time>2021-05-26T12:51:13.061Z</time>
</trkpt>
<trkpt lat="31.7884800" lon="35.0285500">
<ele>460.640015</ele>
<time>2021-05-26T12:51:13.061Z</time>
</trkpt>
<trkpt lat="31.7885600" lon="35.0286700">
<ele>459.109985</ele>
<time>2021-05-26T12:51:13.061Z</time>
</trkpt>
<trkpt lat="31.7888900" lon="35.0294800">
<ele>457.290009</ele>
<time>2021-05-26T12:51:13.061Z</time>
</trkpt>
<trkpt lat="31.7890300" lon="35.0299800">
<ele>451.480011</ele>
<time>2021-05-26T12:51:13.061Z</time>
</trkpt>
<trkpt lat="31.7890400" lon="35.0300500">
<ele>451.059998</ele>
<time>2021-05-26T12:51:13.061Z</time>
</trkpt>
<trkpt lat="31.7890300" lon="35.0301900">
<ele>449.699982</ele>
<time>2021-05-26T12:51:13.061Z</time>
</trkpt>
<trkpt lat="31.7890100" lon="35.0303800">
<ele>448.170013</ele>
<time>2021-05-26T12:51:13.061Z</time>
</trkpt>
<trkpt lat="31.7889600" lon="35.0305000">
<ele>446.640015</ele>
<time>2021-05-26T12:51:13.061Z</time>
</trkpt>
<trkpt lat="31.7889100" lon="35.0305600">
<ele>445.490021</ele>
<time>2021-05-26T12:51:13.061Z</time>
</trkpt>
<trkpt lat="31.7888300" lon="35.0305700">
<ele>446.179993</ele>
<time>2021-05-26T12:51:13.062Z</time>
</trkpt>
<trkpt lat="31.7887800" lon="35.0305400">
<ele>446.940002</ele>
<time>2021-05-26T12:51:13.062Z</time>
</trkpt>
<trkpt lat="31.7887300" lon="35.0304800">
<ele>447.700012</ele>
<time>2021-05-26T12:51:13.062Z</time>
</trkpt>
<trkpt lat="31.7885800" lon="35.0302500">
<ele>450.379974</ele>
<time>2021-05-26T12:51:13.062Z</time>
</trkpt>
<trkpt lat="31.7883900" lon="35.0300300">
<ele>455.989990</ele>
<time>2021-05-26T12:51:13.062Z</time>
</trkpt>
<trkpt lat="31.7880100" lon="35.0297000">
<ele>471.070007</ele>
<time>2021-05-26T12:51:13.062Z</time>
</trkpt>
<trkpt lat="31.7874000" lon="35.0293500">
<ele>478.940002</ele>
<time>2021-05-26T12:51:13.062Z</time>
</trkpt>
<trkpt lat="31.7866500" lon="35.0288300">
<ele>468.229980</ele>
<time>2021-05-26T12:51:13.062Z</time>
</trkpt>
<trkpt lat="31.7865100" lon="35.0287800">
<ele>469.779999</ele>
<time>2021-05-26T12:51:13.062Z</time>
</trkpt>
<trkpt lat="31.7864000" lon="35.0287600">
<ele>471.940002</ele>
<time>2021-05-26T12:51:13.062Z</time>
</trkpt>
<trkpt lat="31.7862700" lon="35.0288900">
<ele>472.899994</ele>
<time>2021-05-26T12:51:13.062Z</time>
</trkpt>
<trkpt lat="31.7857600" lon="35.0287700">
<ele>459.789978</ele>
<time>2021-05-26T12:51:13.062Z</time>
</trkpt>
<trkpt lat="31.7856200" lon="35.0288100">
<ele>458.039978</ele>
<time>2021-05-26T12:51:13.062Z</time>
</trkpt>
<trkpt lat="31.7851700" lon="35.0290600">
<ele>465.839996</ele>
<time>2021-05-26T12:51:13.062Z</time>
</trkpt>
<trkpt lat="31.7850100" lon="35.0291300">
<ele>466.500000</ele>
<time>2021-05-26T12:51:13.062Z</time>
</trkpt>
<trkpt lat="31.7848600" lon="35.0291500">
<ele>469.309998</ele>
<time>2021-05-26T12:51:13.062Z</time>
</trkpt>
<trkpt lat="31.7847900" lon="35.0291300">
<ele>470.350006</ele>
<time>2021-05-26T12:51:13.063Z</time>
</trkpt>
<trkpt lat="31.7846400" lon="35.0290500">
<ele>473.619995</ele>
<time>2021-05-26T12:51:13.063Z</time>
</trkpt>
<trkpt lat="31.7843300" lon="35.0286800">
<ele>474.819977</ele>
<time>2021-05-26T12:51:13.063Z</time>
</trkpt>
<trkpt lat="31.7842300" lon="35.0286000">
<ele>474.479980</ele>
<time>2021-05-26T12:51:13.063Z</time>
</trkpt>
<trkpt lat="31.7841400" lon="35.0285500">
<ele>475.450012</ele>
<time>2021-05-26T12:51:13.063Z</time>
</trkpt>
<trkpt lat="31.7838500" lon="35.0285000">
<ele>481.850006</ele>
<time>2021-05-26T12:51:13.063Z</time>
</trkpt>
<trkpt lat="31.7838000" lon="35.0284600">
<ele>481.889984</ele>
<time>2021-05-26T12:51:13.063Z</time>
</trkpt>
<trkpt lat="31.7835500" lon="35.0282800">
<ele>481.029999</ele>
<time>2021-05-26T12:51:13.063Z</time>
</trkpt>
<trkpt lat="31.7833900" lon="35.0282000">
<ele>481.320007</ele>
<time>2021-05-26T12:51:13.063Z</time>
</trkpt>
<trkpt lat="31.7833300" lon="35.0281900">
<ele>481.470001</ele>
<time>2021-05-26T12:51:13.063Z</time>
</trkpt>
<trkpt lat="31.7832400" lon="35.0282300">
<ele>481.289978</ele>
<time>2021-05-26T12:51:13.063Z</time>
</trkpt>
<trkpt lat="31.7831900" lon="35.0282700">
<ele>481.260010</ele>
<time>2021-05-26T12:51:13.063Z</time>
</trkpt>
<trkpt lat="31.7829800" lon="35.0285200">
<ele>481.830017</ele>
<time>2021-05-26T12:51:13.063Z</time>
</trkpt>
<trkpt lat="31.7827500" lon="35.0287800">
<ele>481.740021</ele>
<time>2021-05-26T12:51:13.063Z</time>
</trkpt>
<trkpt lat="31.7826900" lon="35.0288900">
<ele>483.079987</ele>
<time>2021-05-26T12:51:13.063Z</time>
</trkpt>
<trkpt lat="31.7826700" lon="35.0289700">
<ele>484.879974</ele>
<time>2021-05-26T12:51:13.063Z</time>
</trkpt>
<trkpt lat="31.7826700" lon="35.0290500">
<ele>486.899994</ele>
<time>2021-05-26T12:51:13.063Z</time>
</trkpt>
<trkpt lat="31.7826900" lon="35.0292300">
<ele>491.190002</ele>
<time>2021-05-26T12:51:13.064Z</time>
</trkpt>
<trkpt lat="31.7828200" lon="35.0298800">
<ele>497.880005</ele>
<time>2021-05-26T12:51:13.064Z</time>
</trkpt>
<trkpt lat="31.7828500" lon="35.0302300">
<ele>497.899994</ele>
<time>2021-05-26T12:51:13.064Z</time>
</trkpt>
<trkpt lat="31.7828200" lon="35.0305100">
<ele>496.090027</ele>
<time>2021-05-26T12:51:13.064Z</time>
</trkpt>
<trkpt lat="31.7827900" lon="35.0306300">
<ele>494.599976</ele>
<time>2021-05-26T12:51:13.064Z</time>
</trkpt>
<trkpt lat="31.7827200" lon="35.0307800">
<ele>492.419983</ele>
<time>2021-05-26T12:51:13.064Z</time>
</trkpt>
<trkpt lat="31.7826700" lon="35.0308500">
<ele>491.510010</ele>
<time>2021-05-26T12:51:13.064Z</time>
</trkpt>
<trkpt lat="31.7825400" lon="35.0309600">
<ele>490.160004</ele>
<time>2021-05-26T12:51:13.064Z</time>
</trkpt>
<trkpt lat="31.7823400" lon="35.0310400">
<ele>488.709991</ele>
<time>2021-05-26T12:51:13.064Z</time>
</trkpt>
<trkpt lat="31.7821100" lon="35.0310700">
<ele>487.839996</ele>
<time>2021-05-26T12:51:13.064Z</time>
</trkpt>
<trkpt lat="31.7818600" lon="35.0310600">
<ele>488.630005</ele>
<time>2021-05-26T12:51:13.064Z</time>
</trkpt>
<trkpt lat="31.7818200" lon="35.0309800">
<ele>487.319977</ele>
<time>2021-05-26T12:51:13.064Z</time>
</trkpt>
<trkpt lat="31.7815800" lon="35.0310200">
<ele>490.080017</ele>
<time>2021-05-26T12:51:13.064Z</time>
</trkpt>
<trkpt lat="31.7815100" lon="35.0310200">
<ele>490.919983</ele>
<time>2021-05-26T12:51:13.064Z</time>
</trkpt>
<trkpt lat="31.7814600" lon="35.0310400">
<ele>492.059998</ele>
<time>2021-05-26T12:51:13.064Z</time>
</trkpt>
<trkpt lat="31.7814000" lon="35.0311100">
<ele>494.809998</ele>
<time>2021-05-26T12:51:13.064Z</time>
</trkpt>
<trkpt lat="31.7813700" lon="35.0311900">
<ele>495.400024</ele>
<time>2021-05-26T12:51:13.064Z</time>
</trkpt>
<trkpt lat="31.7813600" lon="35.0312800">
<ele>496.160004</ele>
<time>2021-05-26T12:51:13.064Z</time>
</trkpt>
<trkpt lat="31.7813900" lon="35.0315000">
<ele>499.210022</ele>
<time>2021-05-26T12:51:13.064Z</time>
</trkpt>
<trkpt lat="31.7813900" lon="35.0315000">
<ele>499.210022</ele>
<time>2021-05-26T12:51:13.064Z</time>
</trkpt>
<trkpt lat="31.7814000" lon="35.0316300">
<ele>500.739990</ele>
<time>2021-05-26T12:51:13.064Z</time>
</trkpt>
<trkpt lat="31.7814400" lon="35.0322000">
<ele>502.369995</ele>
<time>2021-05-26T12:51:13.064Z</time>
</trkpt>
<trkpt lat="31.7814600" lon="35.0323500">
<ele>501.650024</ele>
<time>2021-05-26T12:51:13.064Z</time>
</trkpt>
<trkpt lat="31.7815000" lon="35.0324500">
<ele>501.999969</ele>
<time>2021-05-26T12:51:13.064Z</time>
</trkpt>
<trkpt lat="31.7815500" lon="35.0325200">
<ele>503.169983</ele>
<time>2021-05-26T12:51:13.064Z</time>
</trkpt>
<trkpt lat="31.7816300" lon="35.0326000">
<ele>505.230011</ele>
<time>2021-05-26T12:51:13.064Z</time>
</trkpt>
<trkpt lat="31.7822900" lon="35.0331200">
<ele>511.790009</ele>
<time>2021-05-26T12:51:13.064Z</time>
</trkpt>
<trkpt lat="31.7825300" lon="35.0333600">
<ele>510.420013</ele>
<time>2021-05-26T12:51:13.064Z</time>
</trkpt>
<trkpt lat="31.7826100" lon="35.0334900">
<ele>512.809998</ele>
<time>2021-05-26T12:51:13.065Z</time>
</trkpt>
<trkpt lat="31.7826700" lon="35.0336200">
<ele>513.500000</ele>
<time>2021-05-26T12:51:13.065Z</time>
</trkpt>
<trkpt lat="31.7828900" lon="35.0343600">
<ele>516.929993</ele>
<time>2021-05-26T12:51:13.065Z</time>
</trkpt>
<trkpt lat="31.7830500" lon="35.0347700">
<ele>516.140015</ele>
<time>2021-05-26T12:51:13.065Z</time>
</trkpt>
<trkpt lat="31.7831300" lon="35.0350400">
<ele>518.720032</ele>
<time>2021-05-26T12:51:13.065Z</time>
</trkpt>
<trkpt lat="31.7831500" lon="35.0352000">
<ele>518.399963</ele>
<time>2021-05-26T12:51:13.065Z</time>
</trkpt>
<trkpt lat="31.7831400" lon="35.0353100">
<ele>516.890015</ele>
<time>2021-05-26T12:51:13.065Z</time>
</trkpt>
<trkpt lat="31.7830500" lon="35.0357300">
<ele>513.669983</ele>
<time>2021-05-26T12:51:13.065Z</time>
</trkpt>
<trkpt lat="31.7829200" lon="35.0361400">
<ele>514.970032</ele>
<time>2021-05-26T12:51:13.065Z</time>
</trkpt>
<trkpt lat="31.7828800" lon="35.0364000">
<ele>516.830017</ele>
<time>2021-05-26T12:51:13.065Z</time>
</trkpt>
<trkpt lat="31.7828400" lon="35.0365800">
<ele>517.839966</ele>
<time>2021-05-26T12:51:13.065Z</time>
</trkpt>
<trkpt lat="31.7828600" lon="35.0366600">
<ele>519.580017</ele>
<time>2021-05-26T12:51:13.065Z</time>
</trkpt>
<trkpt lat="31.7829100" lon="35.0367700">
<ele>523.340027</ele>
<time>2021-05-26T12:51:13.065Z</time>
</trkpt>
<trkpt lat="31.7834400" lon="35.0372200">
<ele>526.359985</ele>
<time>2021-05-26T12:51:13.065Z</time>
</trkpt>
<trkpt lat="31.7836300" lon="35.0373300">
<ele>519.020020</ele>
<time>2021-05-26T12:51:13.065Z</time>
</trkpt>
<trkpt lat="31.7837300" lon="35.0373800">
<ele>518.369995</ele>
<time>2021-05-26T12:51:13.065Z</time>
</trkpt>
<trkpt lat="31.7838400" lon="35.0374000">
<ele>518.760010</ele>
<time>2021-05-26T12:51:13.065Z</time>
</trkpt>
<trkpt lat="31.7846000" lon="35.0374100">
<ele>534.900024</ele>
<time>2021-05-26T12:51:13.065Z</time>
</trkpt>
<trkpt lat="31.7848100" lon="35.0374300">
<ele>538.340027</ele>
<time>2021-05-26T12:51:13.065Z</time>
</trkpt>
<trkpt lat="31.7851000" lon="35.0374900">
<ele>543.470032</ele>
<time>2021-05-26T12:51:13.065Z</time>
</trkpt>
<trkpt lat="31.7854400" lon="35.0376400">
<ele>550.889954</ele>
<time>2021-05-26T12:51:13.065Z</time>
</trkpt>
<trkpt lat="31.7860500" lon="35.0380000">
<ele>551.900024</ele>
<time>2021-05-26T12:51:13.065Z</time>
</trkpt>
<trkpt lat="31.7865600" lon="35.0383300">
<ele>548.200012</ele>
<time>2021-05-26T12:51:13.065Z</time>
</trkpt>
<trkpt lat="31.7867300" lon="35.0384900">
<ele>542.359985</ele>
<time>2021-05-26T12:51:13.066Z</time>
</trkpt>
<trkpt lat="31.7872800" lon="35.0391600">
<ele>533.599976</ele>
<time>2021-05-26T12:51:13.066Z</time>
</trkpt>
<trkpt lat="31.7874000" lon="35.0393800">
<ele>532.109985</ele>
<time>2021-05-26T12:51:13.066Z</time>
</trkpt>
<trkpt lat="31.7875100" lon="35.0396900">
<ele>532.109985</ele>
<time>2021-05-26T12:51:13.066Z</time>
</trkpt>
<trkpt lat="31.7875800" lon="35.0399300">
<ele>532.429993</ele>
<time>2021-05-26T12:51:13.066Z</time>
</trkpt>
<trkpt lat="31.7877600" lon="35.0410600">
<ele>537.659973</ele>
<time>2021-05-26T12:51:13.066Z</time>
</trkpt>
<trkpt lat="31.7878100" lon="35.0417800">
<ele>538.830017</ele>
<time>2021-05-26T12:51:13.066Z</time>
</trkpt>
<trkpt lat="31.7878800" lon="35.0420200">
<ele>540.010010</ele>
<time>2021-05-26T12:51:13.066Z</time>
</trkpt>
<trkpt lat="31.7879600" lon="35.0421700">
<ele>540.869995</ele>
<time>2021-05-26T12:51:13.066Z</time>
</trkpt>
<trkpt lat="31.7880500" lon="35.0423000">
<ele>541.330017</ele>
<time>2021-05-26T12:51:13.066Z</time>
</trkpt>
<trkpt lat="31.7881300" lon="35.0423900">
<ele>541.970032</ele>
<time>2021-05-26T12:51:13.066Z</time>
</trkpt>
<trkpt lat="31.7884900" lon="35.0426700">
<ele>545.559998</ele>
<time>2021-05-26T12:51:13.066Z</time>
</trkpt>
<trkpt lat="31.7886500" lon="35.0427600">
<ele>545.739990</ele>
<time>2021-05-26T12:51:13.066Z</time>
</trkpt>
<trkpt lat="31.7889900" lon="35.0429000">
<ele>544.919983</ele>
<time>2021-05-26T12:51:13.066Z</time>
</trkpt>
<trkpt lat="31.7893800" lon="35.0431200">
<ele>546.549988</ele>
<time>2021-05-26T12:51:13.066Z</time>
</trkpt>
<trkpt lat="31.7895100" lon="35.0432600">
<ele>548.270020</ele>
<time>2021-05-26T12:51:13.066Z</time>
</trkpt>
<trkpt lat="31.7896400" lon="35.0435600">
<ele>549.980042</ele>
<time>2021-05-26T12:51:13.066Z</time>
</trkpt>
<trkpt lat="31.7896600" lon="35.0437400">
<ele>550.219971</ele>
<time>2021-05-26T12:51:13.066Z</time>
</trkpt>
<trkpt lat="31.7897100" lon="35.0438000">
<ele>550.840027</ele>
<time>2021-05-26T12:51:13.066Z</time>
</trkpt>
<trkpt lat="31.7897500" lon="35.0439700">
<ele>551.260010</ele>
<time>2021-05-26T12:51:13.066Z</time>
</trkpt>
<trkpt lat="31.7898000" lon="35.0440200">
<ele>551.340027</ele>
<time>2021-05-26T12:51:13.066Z</time>
</trkpt>
<trkpt lat="31.7898700" lon="35.0440600">
<ele>551.289978</ele>
<time>2021-05-26T12:51:13.066Z</time>
</trkpt>
<trkpt lat="31.7899700" lon="35.0440200">
<ele>551.049988</ele>
<time>2021-05-26T12:51:13.066Z</time>
</trkpt>
<trkpt lat="31.7899900" lon="35.0440100">
<ele>551.019958</ele>
<time>2021-05-26T12:51:13.066Z</time>
</trkpt>
<trkpt lat="31.7899900" lon="35.0440200">
<ele>551.019958</ele>
<time>2021-05-26T12:51:13.066Z</time>
</trkpt>
<trkpt lat="31.7899900" lon="35.0440200">
<ele>551.019958</ele>
<time>2021-05-26T12:51:13.066Z</time>
</trkpt>
<trkpt lat="31.7901500" lon="35.0440000">
<ele>552.510010</ele>
<time>2021-05-26T12:51:13.066Z</time>
</trkpt>
<trkpt lat="31.7902300" lon="35.0439500">
<ele>553.020020</ele>
<time>2021-05-26T12:51:13.066Z</time>
</trkpt>
<trkpt lat="31.7903300" lon="35.0438900">
<ele>553.570007</ele>
<time>2021-05-26T12:51:13.067Z</time>
</trkpt>
<trkpt lat="31.7904700" lon="35.0438600">
<ele>555.290039</ele>
<time>2021-05-26T12:51:13.067Z</time>
</trkpt>
<trkpt lat="31.7910700" lon="35.0444300">
<ele>569.080017</ele>
<time>2021-05-26T12:51:13.067Z</time>
</trkpt>
<trkpt lat="31.7911700" lon="35.0444900">
<ele>571.210022</ele>
<time>2021-05-26T12:51:13.067Z</time>
</trkpt>
<trkpt lat="31.7914800" lon="35.0445800">
<ele>576.979980</ele>
<time>2021-05-26T12:51:13.067Z</time>
</trkpt>
<trkpt lat="31.7915600" lon="35.0446600">
<ele>577.210022</ele>
<time>2021-05-26T12:51:13.067Z</time>
</trkpt>
<trkpt lat="31.7916700" lon="35.0448900">
<ele>576.419983</ele>
<time>2021-05-26T12:51:13.067Z</time>
</trkpt>
<trkpt lat="31.7917700" lon="35.0450100">
<ele>576.690002</ele>
<time>2021-05-26T12:51:13.067Z</time>
</trkpt>
<trkpt lat="31.7918500" lon="35.0450500">
<ele>577.080017</ele>
<time>2021-05-26T12:51:13.067Z</time>
</trkpt>
<trkpt lat="31.7922300" lon="35.0449600">
<ele>579.979980</ele>
<time>2021-05-26T12:51:13.067Z</time>
</trkpt>
<trkpt lat="31.7922900" lon="35.0450000">
<ele>579.760010</ele>
<time>2021-05-26T12:51:13.067Z</time>
</trkpt>
<trkpt lat="31.7923500" lon="35.0450600">
<ele>579.460022</ele>
<time>2021-05-26T12:51:13.067Z</time>
</trkpt>
<trkpt lat="31.7923800" lon="35.0451500">
<ele>579.049988</ele>
<time>2021-05-26T12:51:13.067Z</time>
</trkpt>
<trkpt lat="31.7924100" lon="35.0456900">
<ele>578.630005</ele>
<time>2021-05-26T12:51:13.067Z</time>
</trkpt>
<trkpt lat="31.7924600" lon="35.0458100">
<ele>579.000000</ele>
<time>2021-05-26T12:51:13.067Z</time>
</trkpt>
<trkpt lat="31.7925000" lon="35.0458600">
<ele>579.289978</ele>
<time>2021-05-26T12:51:13.067Z</time>
</trkpt>
<trkpt lat="31.7925600" lon="35.0459100">
<ele>578.840027</ele>
<time>2021-05-26T12:51:13.067Z</time>
</trkpt>
<trkpt lat="31.7927500" lon="35.0459800">
<ele>576.029968</ele>
<time>2021-05-26T12:51:13.067Z</time>
</trkpt>
<trkpt lat="31.7931200" lon="35.0461400">
<ele>571.570007</ele>
<time>2021-05-26T12:51:13.067Z</time>
</trkpt>
<trkpt lat="31.7932600" lon="35.0461900">
<ele>572.799988</ele>
<time>2021-05-26T12:51:13.067Z</time>
</trkpt>
<trkpt lat="31.7931800" lon="35.0460200">
<ele>571.010010</ele>
<time>2021-05-26T12:51:13.067Z</time>
</trkpt>
<trkpt lat="31.7930300" lon="35.0457900">
<ele>571.340027</ele>
<time>2021-05-26T12:51:13.067Z</time>
</trkpt>
<trkpt lat="31.7929800" lon="35.0456700">
<ele>571.770020</ele>
<time>2021-05-26T12:51:13.067Z</time>
</trkpt>
<trkpt lat="31.7929600" lon="35.0454600">
<ele>570.549988</ele>
<time>2021-05-26T12:51:13.067Z</time>
</trkpt>
<trkpt lat="31.7930000" lon="35.0453000">
<ele>568.090027</ele>
<time>2021-05-26T12:51:13.067Z</time>
</trkpt>
<trkpt lat="31.7930300" lon="35.0452700">
<ele>567.400024</ele>
<time>2021-05-26T12:51:13.067Z</time>
</trkpt>
<trkpt lat="31.7930300" lon="35.0452700">
<ele>567.400024</ele>
<time>2021-05-26T12:51:13.068Z</time>
</trkpt>
<trkpt lat="31.7930300" lon="35.0452700">
<ele>567.400024</ele>
<time>2021-05-26T12:51:13.068Z</time>
</trkpt>
<trkpt lat="31.7930800" lon="35.0452200">
<ele>566.210022</ele>
<time>2021-05-26T12:51:13.068Z</time>
</trkpt>
<trkpt lat="31.7931200" lon="35.0452200">
<ele>564.570007</ele>
<time>2021-05-26T12:51:13.068Z</time>
</trkpt>
<trkpt lat="31.7934800" lon="35.0452200">
<ele>552.859985</ele>
<time>2021-05-26T12:51:13.068Z</time>
</trkpt>
<trkpt lat="31.7936500" lon="35.0452600">
<ele>548.799988</ele>
<time>2021-05-26T12:51:13.068Z</time>
</trkpt>
<trkpt lat="31.7937600" lon="35.0452500">
<ele>545.279968</ele>
<time>2021-05-26T12:51:13.068Z</time>
</trkpt>
<trkpt lat="31.7938400" lon="35.0452200">
<ele>542.790039</ele>
<time>2021-05-26T12:51:13.068Z</time>
</trkpt>
<trkpt lat="31.7941300" lon="35.0451000">
<ele>539.660034</ele>
<time>2021-05-26T12:51:13.068Z</time>
</trkpt>
<trkpt lat="31.7942300" lon="35.0450800">
<ele>538.830017</ele>
<time>2021-05-26T12:51:13.068Z</time>
</trkpt>
<trkpt lat="31.7945600" lon="35.0449200">
<ele>536.010010</ele>
<time>2021-05-26T12:51:13.068Z</time>
</trkpt>
<trkpt lat="31.7947400" lon="35.0447800">
<ele>534.390015</ele>
<time>2021-05-26T12:51:13.068Z</time>
</trkpt>
<trkpt lat="31.7951400" lon="35.0443600">
<ele>527.700012</ele>
<time>2021-05-26T12:51:13.068Z</time>
</trkpt>
<trkpt lat="31.7952800" lon="35.0441700">
<ele>528.029968</ele>
<time>2021-05-26T12:51:13.068Z</time>
</trkpt>
<trkpt lat="31.7954200" lon="35.0438800">
<ele>522.540039</ele>
<time>2021-05-26T12:51:13.068Z</time>
</trkpt>
<trkpt lat="31.7954900" lon="35.0437800">
<ele>522.540039</ele>
<time>2021-05-26T12:51:13.068Z</time>
</trkpt>
<trkpt lat="31.7955700" lon="35.0437000">
<ele>521.640015</ele>
<time>2021-05-26T12:51:13.068Z</time>
</trkpt>
<trkpt lat="31.7958800" lon="35.0434100">
<ele>517.200012</ele>
<time>2021-05-26T12:51:13.068Z</time>
</trkpt>
<trkpt lat="31.7962400" lon="35.0430600">
<ele>513.940002</ele>
<time>2021-05-26T12:51:13.068Z</time>
</trkpt>
<trkpt lat="31.7963400" lon="35.0429300">
<ele>513.429993</ele>
<time>2021-05-26T12:51:13.068Z</time>
</trkpt>
<trkpt lat="31.7965200" lon="35.0426700">
<ele>512.900024</ele>
<time>2021-05-26T12:51:13.068Z</time>
</trkpt>
<trkpt lat="31.7966900" lon="35.0423500">
<ele>509.990021</ele>
<time>2021-05-26T12:51:13.068Z</time>
</trkpt>
<trkpt lat="31.7968400" lon="35.0420200">
<ele>506.559998</ele>
<time>2021-05-26T12:51:13.068Z</time>
</trkpt>
<trkpt lat="31.7969300" lon="35.0418300">
<ele>503.929993</ele>
<time>2021-05-26T12:51:13.068Z</time>
</trkpt>
<trkpt lat="31.7976300" lon="35.0409700">
<ele>501.119995</ele>
<time>2021-05-26T12:51:13.068Z</time>
</trkpt>
<trkpt lat="31.7979100" lon="35.0405300">
<ele>499.640015</ele>
<time>2021-05-26T12:51:13.068Z</time>
</trkpt>
<trkpt lat="31.7987300" lon="35.0393500">
<ele>487.500000</ele>
<time>2021-05-26T12:51:13.069Z</time>
</trkpt>
<trkpt lat="31.7989100" lon="35.0390400">
<ele>480.949982</ele>
<time>2021-05-26T12:51:13.069Z</time>
</trkpt>
<trkpt lat="31.7990800" lon="35.0388200">
<ele>479.690002</ele>
<time>2021-05-26T12:51:13.069Z</time>
</trkpt>
<trkpt lat="31.7991600" lon="35.0386800">
<ele>478.020020</ele>
<time>2021-05-26T12:51:13.069Z</time>
</trkpt>
<trkpt lat="31.7992400" lon="35.0384400">
<ele>479.269989</ele>
<time>2021-05-26T12:51:13.069Z</time>
</trkpt>
<trkpt lat="31.7994500" lon="35.0380000">
<ele>478.589996</ele>
<time>2021-05-26T12:51:13.069Z</time>
</trkpt>
<trkpt lat="31.7996500" lon="35.0375000">
<ele>476.480011</ele>
<time>2021-05-26T12:51:13.069Z</time>
</trkpt>
<trkpt lat="31.7998100" lon="35.0372200">
<ele>475.859985</ele>
<time>2021-05-26T12:51:13.069Z</time>
</trkpt>
<trkpt lat="31.8001500" lon="35.0366700">
<ele>471.750000</ele>
<time>2021-05-26T12:51:13.069Z</time>
</trkpt>
<trkpt lat="31.8004400" lon="35.0360900">
<ele>469.360016</ele>
<time>2021-05-26T12:51:13.069Z</time>
</trkpt>
<trkpt lat="31.8004800" lon="35.0359700">
<ele>471.200012</ele>
<time>2021-05-26T12:51:13.069Z</time>
</trkpt>
<trkpt lat="31.8004900" lon="35.0358400">
<ele>472.079987</ele>
<time>2021-05-26T12:51:13.069Z</time>
</trkpt>
<trkpt lat="31.8004500" lon="35.0355900">
<ele>472.079987</ele>
<time>2021-05-26T12:51:13.069Z</time>
</trkpt>
<trkpt lat="31.8004400" lon="35.0353400">
<ele>471.390015</ele>
<time>2021-05-26T12:51:13.069Z</time>
</trkpt>
<trkpt lat="31.8004000" lon="35.0351800">
<ele>470.179993</ele>
<time>2021-05-26T12:51:13.069Z</time>
</trkpt>
<trkpt lat="31.8003300" lon="35.0350900">
<ele>469.019989</ele>
<time>2021-05-26T12:51:13.069Z</time>
</trkpt>
<trkpt lat="31.8001600" lon="35.0350300">
<ele>470.579987</ele>
<time>2021-05-26T12:51:13.069Z</time>
</trkpt>
<trkpt lat="31.7999700" lon="35.0349000">
<ele>474.800018</ele>
<time>2021-05-26T12:51:13.069Z</time>
</trkpt>
<trkpt lat="31.7998100" lon="35.0347300">
<ele>477.269989</ele>
<time>2021-05-26T12:51:13.069Z</time>
</trkpt>
<trkpt lat="31.7994000" lon="35.0342600">
<ele>480.110016</ele>
<time>2021-05-26T12:51:13.069Z</time>
</trkpt>
<trkpt lat="31.7993200" lon="35.0341900">
<ele>480.410004</ele>
<time>2021-05-26T12:51:13.069Z</time>
</trkpt>
<trkpt lat="31.7991900" lon="35.0341000">
<ele>480.619995</ele>
<time>2021-05-26T12:51:13.069Z</time>
</trkpt>
<trkpt lat="31.7990600" lon="35.0339600">
<ele>480.350006</ele>
<time>2021-05-26T12:51:13.069Z</time>
</trkpt>
<trkpt lat="31.7989900" lon="35.0338100">
<ele>479.540009</ele>
<time>2021-05-26T12:51:13.069Z</time>
</trkpt>
<trkpt lat="31.7988600" lon="35.0333800">
<ele>478.069977</ele>
<time>2021-05-26T12:51:13.069Z</time>
</trkpt>
<trkpt lat="31.7988800" lon="35.0327800">
<ele>471.099976</ele>
<time>2021-05-26T12:51:13.069Z</time>
</trkpt>
<trkpt lat="31.7989300" lon="35.0326700">
<ele>470.799988</ele>
<time>2021-05-26T12:51:13.070Z</time>
</trkpt>
<trkpt lat="31.7989900" lon="35.0326300">
<ele>469.839996</ele>
<time>2021-05-26T12:51:13.070Z</time>
</trkpt>
<trkpt lat="31.7992400" lon="35.0326300">
<ele>465.269989</ele>
<time>2021-05-26T12:51:13.070Z</time>
</trkpt>
<trkpt lat="31.7993800" lon="35.0325700">
<ele>461.020020</ele>
<time>2021-05-26T12:51:13.070Z</time>
</trkpt>
<trkpt lat="31.7995500" lon="35.0324200">
<ele>455.750000</ele>
<time>2021-05-26T12:51:13.070Z</time>
</trkpt>
<trkpt lat="31.7996900" lon="35.0324400">
<ele>454.839996</ele>
<time>2021-05-26T12:51:13.070Z</time>
</trkpt>
<trkpt lat="31.7997500" lon="35.0324100">
<ele>453.989990</ele>
<time>2021-05-26T12:51:13.070Z</time>
</trkpt>
<trkpt lat="31.7998400" lon="35.0323300">
<ele>451.990021</ele>
<time>2021-05-26T12:51:13.070Z</time>
</trkpt>
<trkpt lat="31.7999600" lon="35.0321700">
<ele>447.670013</ele>
<time>2021-05-26T12:51:13.070Z</time>
</trkpt>
<trkpt lat="31.8001300" lon="35.0320200">
<ele>442.779999</ele>
<time>2021-05-26T12:51:13.070Z</time>
</trkpt>
<trkpt lat="31.8002300" lon="35.0319000">
<ele>441.120026</ele>
<time>2021-05-26T12:51:13.070Z</time>
</trkpt>
<trkpt lat="31.8003200" lon="35.0317200">
<ele>440.600006</ele>
<time>2021-05-26T12:51:13.070Z</time>
</trkpt>
<trkpt lat="31.8003700" lon="35.0315600">
<ele>439.159973</ele>
<time>2021-05-26T12:51:13.070Z</time>
</trkpt>
<trkpt lat="31.8004800" lon="35.0309400">
<ele>434.100006</ele>
<time>2021-05-26T12:51:13.070Z</time>
</trkpt>
<trkpt lat="31.8005800" lon="35.0305800">
<ele>431.250000</ele>
<time>2021-05-26T12:51:13.070Z</time>
</trkpt>
<trkpt lat="31.8006600" lon="35.0300800">
<ele>426.799988</ele>
<time>2021-05-26T12:51:13.070Z</time>
</trkpt>
<trkpt lat="31.8007200" lon="35.0298700">
<ele>424.320007</ele>
<time>2021-05-26T12:51:13.070Z</time>
</trkpt>
<trkpt lat="31.8008200" lon="35.0296500">
<ele>421.750000</ele>
<time>2021-05-26T12:51:13.070Z</time>
</trkpt>
<trkpt lat="31.8009800" lon="35.0293700">
<ele>420.190002</ele>
<time>2021-05-26T12:51:13.070Z</time>
</trkpt>
<trkpt lat="31.8017700" lon="35.0283300">
<ele>406.820007</ele>
<time>2021-05-26T12:51:13.070Z</time>
</trkpt>
<trkpt lat="31.8020200" lon="35.0279400">
<ele>399.770020</ele>
<time>2021-05-26T12:51:13.070Z</time>
</trkpt>
<trkpt lat="31.8021800" lon="35.0276900">
<ele>394.979980</ele>
<time>2021-05-26T12:51:13.070Z</time>
</trkpt>
<trkpt lat="31.8024000" lon="35.0274000">
<ele>396.440002</ele>
<time>2021-05-26T12:51:13.070Z</time>
</trkpt>
<trkpt lat="31.8024700" lon="35.0273200">
<ele>397.500031</ele>
<time>2021-05-26T12:51:13.070Z</time>
</trkpt>
<trkpt lat="31.8025400" lon="35.0272200">
<ele>397.399994</ele>
<time>2021-05-26T12:51:13.070Z</time>
</trkpt>
<trkpt lat="31.8026200" lon="35.0269800">
<ele>393.660004</ele>
<time>2021-05-26T12:51:13.071Z</time>
</trkpt>
<trkpt lat="31.8026800" lon="35.0266500">
<ele>387.189972</ele>
<time>2021-05-26T12:51:13.071Z</time>
</trkpt>
<trkpt lat="31.8027200" lon="35.0264900">
<ele>384.419983</ele>
<time>2021-05-26T12:51:13.071Z</time>
</trkpt>
<trkpt lat="31.8027800" lon="35.0263400">
<ele>381.260010</ele>
<time>2021-05-26T12:51:13.071Z</time>
</trkpt>
<trkpt lat="31.8029200" lon="35.0262000">
<ele>377.420013</ele>
<time>2021-05-26T12:51:13.071Z</time>
</trkpt>
<trkpt lat="31.8031700" lon="35.0260300">
<ele>376.650024</ele>
<time>2021-05-26T12:51:13.071Z</time>
</trkpt>
<trkpt lat="31.8033700" lon="35.0259000">
<ele>378.220001</ele>
<time>2021-05-26T12:51:13.071Z</time>
</trkpt>
<trkpt lat="31.8034200" lon="35.0258700">
<ele>377.790009</ele>
<time>2021-05-26T12:51:13.071Z</time>
</trkpt>
<trkpt lat="31.8038800" lon="35.0255400">
<ele>371.959991</ele>
<time>2021-05-26T12:51:13.071Z</time>
</trkpt>
<trkpt lat="31.8040700" lon="35.0254500">
<ele>371.080017</ele>
<time>2021-05-26T12:51:13.071Z</time>
</trkpt>
<trkpt lat="31.8042300" lon="35.0253500">
<ele>369.290009</ele>
<time>2021-05-26T12:51:13.071Z</time>
</trkpt>
<trkpt lat="31.8045100" lon="35.0250900">
<ele>363.129974</ele>
<time>2021-05-26T12:51:13.071Z</time>
</trkpt>
<trkpt lat="31.8046300" lon="35.0250000">
<ele>361.329987</ele>
<time>2021-05-26T12:51:13.071Z</time>
</trkpt>
<trkpt lat="31.8047300" lon="35.0249500">
<ele>360.009979</ele>
<time>2021-05-26T12:51:13.071Z</time>
</trkpt>
<trkpt lat="31.8048600" lon="35.0248900">
<ele>359.709991</ele>
<time>2021-05-26T12:51:13.071Z</time>
</trkpt>
<trkpt lat="31.8050800" lon="35.0247400">
<ele>357.269989</ele>
<time>2021-05-26T12:51:13.071Z</time>
</trkpt>
<trkpt lat="31.8052600" lon="35.0245700">
<ele>355.599976</ele>
<time>2021-05-26T12:51:13.071Z</time>
</trkpt>
<trkpt lat="31.8054000" lon="35.0244900">
<ele>353.539978</ele>
<time>2021-05-26T12:51:13.071Z</time>
</trkpt>
<trkpt lat="31.8056800" lon="35.0243000">
<ele>350.620026</ele>
<time>2021-05-26T12:51:13.071Z</time>
</trkpt>
<trkpt lat="31.8060800" lon="35.0241300">
<ele>344.039978</ele>
<time>2021-05-26T12:51:13.071Z</time>
</trkpt>
<trkpt lat="31.8061500" lon="35.0241200">
<ele>343.239990</ele>
<time>2021-05-26T12:51:13.071Z</time>
</trkpt>
<trkpt lat="31.8063600" lon="35.0240800">
<ele>341.550018</ele>
<time>2021-05-26T12:51:13.071Z</time>
</trkpt>
<trkpt lat="31.8064900" lon="35.0240300">
<ele>340.290009</ele>
<time>2021-05-26T12:51:13.071Z</time>
</trkpt>
<trkpt lat="31.8067700" lon="35.0237700">
<ele>337.099976</ele>
<time>2021-05-26T12:51:13.071Z</time>
</trkpt>
<trkpt lat="31.8070100" lon="35.0236300">
<ele>333.379974</ele>
<time>2021-05-26T12:51:13.071Z</time>
</trkpt>
<trkpt lat="31.8073300" lon="35.0234000">
<ele>326.010010</ele>
<time>2021-05-26T12:51:13.071Z</time>
</trkpt>
<trkpt lat="31.8075500" lon="35.0231800">
<ele>318.609985</ele>
<time>2021-05-26T12:51:13.072Z</time>
</trkpt>
<trkpt lat="31.8077100" lon="35.0229800">
<ele>315.000000</ele>
<time>2021-05-26T12:51:13.072Z</time>
</trkpt>
<trkpt lat="31.8080200" lon="35.0227300">
<ele>312.339996</ele>
<time>2021-05-26T12:51:13.072Z</time>
</trkpt>
<trkpt lat="31.8083500" lon="35.0224800">
<ele>312.080017</ele>
<time>2021-05-26T12:51:13.072Z</time>
</trkpt>
<trkpt lat="31.8087100" lon="35.0221400">
<ele>307.970001</ele>
<time>2021-05-26T12:51:13.072Z</time>
</trkpt>
<trkpt lat="31.8088000" lon="35.0220300">
<ele>307.190002</ele>
<time>2021-05-26T12:51:13.072Z</time>
</trkpt>
<trkpt lat="31.8089500" lon="35.0218300">
<ele>305.220001</ele>
<time>2021-05-26T12:51:13.072Z</time>
</trkpt>
<trkpt lat="31.8091100" lon="35.0215800">
<ele>302.820007</ele>
<time>2021-05-26T12:51:13.072Z</time>
</trkpt>
<trkpt lat="31.8092100" lon="35.0213700">
<ele>302.609985</ele>
<time>2021-05-26T12:51:13.072Z</time>
</trkpt>
<trkpt lat="31.8092500" lon="35.0211700">
<ele>302.959991</ele>
<time>2021-05-26T12:51:13.072Z</time>
</trkpt>
<trkpt lat="31.8093100" lon="35.0209900">
<ele>305.049988</ele>
<time>2021-05-26T12:51:13.072Z</time>
</trkpt>
<trkpt lat="31.8095200" lon="35.0201600">
<ele>308.550018</ele>
<time>2021-05-26T12:51:13.072Z</time>
</trkpt>
<trkpt lat="31.8095100" lon="35.0200100">
<ele>308.690002</ele>
<time>2021-05-26T12:51:13.072Z</time>
</trkpt>
<trkpt lat="31.8094200" lon="35.0199100">
<ele>306.320007</ele>
<time>2021-05-26T12:51:13.072Z</time>
</trkpt>
<trkpt lat="31.8090000" lon="35.0196700">
<ele>308.799988</ele>
<time>2021-05-26T12:51:13.072Z</time>
</trkpt>
<trkpt lat="31.8091900" lon="35.0191500">
<ele>304.350006</ele>
<time>2021-05-26T12:51:13.072Z</time>
</trkpt>
<trkpt lat="31.8093100" lon="35.0188200">
<ele>299.520020</ele>
<time>2021-05-26T12:51:13.072Z</time>
</trkpt>
<trkpt lat="31.8094800" lon="35.0182500">
<ele>292.010010</ele>
<time>2021-05-26T12:51:13.072Z</time>
</trkpt>
<trkpt lat="31.8095800" lon="35.0179700">
<ele>289.699982</ele>
<time>2021-05-26T12:51:13.072Z</time>
</trkpt>
<trkpt lat="31.8096400" lon="35.0177100">
<ele>288.350006</ele>
<time>2021-05-26T12:51:13.072Z</time>
</trkpt>
<trkpt lat="31.8097000" lon="35.0174500">
<ele>286.980011</ele>
<time>2021-05-26T12:51:13.072Z</time>
</trkpt>
<trkpt lat="31.8097200" lon="35.0173300">
<ele>286.399994</ele>
<time>2021-05-26T12:51:13.072Z</time>
</trkpt>
<trkpt lat="31.8098200" lon="35.0170700">
<ele>286.190002</ele>
<time>2021-05-26T12:51:13.072Z</time>
</trkpt>
<trkpt lat="31.8100100" lon="35.0165600">
<ele>284.130005</ele>
<time>2021-05-26T12:51:13.072Z</time>
</trkpt>
<trkpt lat="31.8101500" lon="35.0161200">
<ele>284.570007</ele>
<time>2021-05-26T12:51:13.072Z</time>
</trkpt>
<trkpt lat="31.8102800" lon="35.0157800">
<ele>283.200012</ele>
<time>2021-05-26T12:51:13.073Z</time>
</trkpt>
<trkpt lat="31.8103500" lon="35.0154900">
<ele>284.700012</ele>
<time>2021-05-26T12:51:13.073Z</time>
</trkpt>
<trkpt lat="31.8104700" lon="35.0151900">
<ele>285.110016</ele>
<time>2021-05-26T12:51:13.073Z</time>
</trkpt>
<trkpt lat="31.8105300" lon="35.0149400">
<ele>283.160004</ele>
<time>2021-05-26T12:51:13.073Z</time>
</trkpt>
<trkpt lat="31.8109800" lon="35.0141200">
<ele>276.490021</ele>
<time>2021-05-26T12:51:13.073Z</time>
</trkpt>
<trkpt lat="31.8112900" lon="35.0136100">
<ele>275.929993</ele>
<time>2021-05-26T12:51:13.073Z</time>
</trkpt>
<trkpt lat="31.8113000" lon="35.0135900">
<ele>276.010010</ele>
<time>2021-05-26T12:51:13.073Z</time>
</trkpt>
<trkpt lat="31.8112900" lon="35.0135900">
<ele>275.919983</ele>
<time>2021-05-26T12:51:13.073Z</time>
</trkpt>
</trkseg>
</trk>
</gpx>
